FW6030 Weather Reports


time (UTC)temp
C
wind
direction
speed
KPH
gust
KPH
rain 1hr
cm
rain 24hr
cm
rain mn
cm
humidity
%
barometer
mb
20260508012729 17 360 4.8 12.9 0.00 0.00 0.00 68 1014.8
20260508012628 17 360 4.8 12.9 0.00 0.00 0.00 68 1014.9
20260508012529 17 360 4.8 12.9 0.00 0.00 0.00 68 1015.0
20260508012433 17 360 6.4 12.9 0.00 0.00 0.00 68 1015.0
20260508012333 17 360 6.4 12.9 0.00 0.00 0.00 68 1014.9
20260508012233 18 360 6.4 12.9 0.00 0.00 0.00 68 1014.9
20260508012156 18 360 6.4 12.9 0.00 0.00 0.00 67 1014.8
20260508012035 18 360 6.4 12.9 0.00 0.00 0.00 67 1014.8
20260508011916 18 98 6.4 12.9 0.00 0.00 0.00 67 1015.0
20260508011821 18 360 6.4 12.9 0.00 0.00 0.00 67 1015.0
20260508011720 18 360 6.4 12.9 0.00 0.00 0.00 67 1015.1
20260508011621 18 360 6.4 12.9 0.00 0.00 0.00 67 1015.1
20260508011543 18 360 6.4 12.9 0.00 0.00 0.00 67 1015.2
20260508011422 18 360 6.4 12.9 0.00 0.00 0.00 67 1015.2
20260508011323 18 360 6.4 12.9 0.00 0.00 0.00 67 1015.3
20260508011223 18 360 4.8 12.9 0.00 0.00 0.00 67 1015.3
20260508011128 18 85 4.8 12.9 0.00 0.00 0.00 68 1015.3
20260508011027 18 360 4.8 12.9 0.00 0.00 0.00 68 1015.3
20260508010928 18 360 4.8 12.9 0.00 0.00 0.00 68 1015.3
20260508010829 18 360 4.8 12.9 0.00 0.00 0.00 68 1015.3
20260508010730 18 360 6.4 12.9 0.00 0.00 0.00 68 1015.4
20260508010629 18 360 6.4 12.9 0.00 0.00 0.00 68 1015.3
20260508010529 18 11 6.4 9.7 0.00 0.00 0.00 68 1015.4
20260508010429 18 360 6.4 12.9 0.00 0.00 0.00 68 1015.3
20260508010334 18 360 6.4 12.9 0.00 0.00 0.00 68 1015.3
20260508010233 18 360 4.8 12.9 0.00 0.00 0.00 68 1015.3
20260508010134 18 360 4.8 12.9 0.00 0.00 0.00 68 1015.3
20260508010034 18 360 4.8 12.9 0.00 0.00 0.00 68 1015.1
20260508005935 18 360 4.8 12.9 0.00 0.00 0.00 68 1015.1
20260508005818 18 360 6.4 12.9 0.00 0.00 0.00 68 1014.7
20260508005720 18 360 6.4 12.9 0.00 0.00 0.00 68 1014.7
20260508005621 18 360 6.4 12.9 0.00 0.00 0.00 68 1014.6
20260508005522 18 360 6.4 12.9 0.00 0.00 0.00 68 1014.5
20260508005422 18 360 8.0 9.7 0.00 0.00 0.00 68 1014.4
20260508005322 18 360 8.0 9.7 0.00 0.00 0.00 68 1014.5
20260508005223 18 360 8.0 9.7 0.00 0.00 0.00 68 1014.4
20260508005122 18 360 8.0 9.7 0.00 0.00 0.00 68 1014.6
20260508005028 18 360 6.4 9.7 0.00 0.00 0.00 68 1014.6
20260508004927 18 360 6.4 9.7 0.00 0.00 0.00 68 1014.9
20260508004826 18 360 6.4 9.7 0.00 0.00 0.00 68 1015.1
20260508004728 18 360 6.4 12.9 0.00 0.00 0.00 67 1015.1
20260508004628 18 360 6.4 12.9 0.00 0.00 0.00 67 1015.2
20260508004528 18 360 6.4 12.9 0.00 0.00 0.00 67 1015.3
20260508004429 18 360 6.4 12.9 0.00 0.00 0.00 67 1015.3
20260508004334 18 360 6.4 12.9 0.00 0.00 0.00 67 1015.2
20260508004235 18 360 6.4 12.9 0.00 0.00 0.00 67 1015.0
20260508004135 18 66 6.4 12.9 0.00 0.00 0.00 67 1014.9
20260508004035 18 360 8.0 12.9 0.00 0.00 0.00 67 1014.7
20260508003935 18 360 6.4 12.9 0.00 0.00 0.00 67 1014.8
20260508003856 18 360 6.4 9.7 0.00 0.00 0.00 67 1014.8
20260508003719 18 360 4.8 9.7 0.00 0.00 0.00 67 1015.1
20260508003619 18 360 4.8 9.7 0.00 0.00 0.00 67 1015.2
20260508003519 18 360 4.8 9.7 0.00 0.00 0.00 67 1015.3
20260508003440 18 360 4.8 9.7 0.00 0.00 0.00 67 1015.4
20260508003319 18 360 4.8 9.7 0.00 0.00 0.00 67 1015.5
20260508003221 18 360 4.8 9.7 0.00 0.00 0.00 67 1015.4
20260508003121 18 90 4.8 9.7 0.00 0.00 0.00 67 1015.4
20260508003026 18 360 4.8 11.3 0.00 0.00 0.00 67 1015.4
20260508002927 18 360 4.8 11.3 0.00 0.00 0.00 66 1015.4
20260508002828 18 360 4.8 11.3 0.00 0.00 0.00 66 1015.4
20260508002727 18 96 4.8 11.3 0.00 0.00 0.00 67 1015.4
20260508002626 18 360 4.8 8.0 0.00 0.00 0.00 67 1015.3
20260508002526 18 360 4.8 9.7 0.00 0.00 0.00 67 1015.3
20260508002427 18 360 4.8 12.9 0.00 0.00 0.00 67 1015.3
20260508002328 18 360 4.8 12.9 0.00 0.00 0.00 67 1015.3
20260508002232 18 360 4.8 12.9 0.00 0.00 0.00 67 1015.4
20260508002152 18 360 4.8 12.9 0.00 0.00 0.00 67 1015.4
20260508002032 18 360 6.4 9.7 0.00 0.00 0.00 66 1015.5
20260508001935 18 360 6.4 9.7 0.00 0.00 0.00 66 1015.4
20260508001855 18 360 6.4 9.7 0.00 0.00 0.00 66 1015.5
20260508001734 18 360 6.4 9.7 0.00 0.00 0.00 66 1015.5
20260508001635 18 360 6.4 9.7 0.00 0.00 0.00 66 1015.6
20260508001520 18 360 6.4 9.7 0.00 0.00 0.00 66 1015.9
20260508001420 18 360 6.4 12.9 0.00 0.00 0.00 66 1015.9
20260508001341 18 360 4.8 12.9 0.00 0.00 0.00 67 1015.9
20260508001220 18 360 4.8 12.9 0.00 0.00 0.00 66 1015.9
20260508001121 18 28 4.8 12.9 0.00 0.00 0.00 66 1015.8
20260508001021 18 360 6.4 12.9 0.00 0.00 0.00 66 1015.8
20260508000922 18 360 6.4 12.9 0.00 0.00 0.00 66 1015.6
20260508000828 18 360 6.4 12.9 0.00 0.00 0.00 66 1015.6
20260508000748 18 360 8.0 12.9 0.00 0.00 0.00 66 1015.5
20260508000627 18 360 8.0 12.9 0.00 0.00 0.00 65 1015.5
20260508000526 18 360 8.0 12.9 0.00 0.00 0.00 65 1015.5
20260508000450 18 360 6.4 12.9 0.00 0.00 0.00 65 1015.5
20260508000328 18 360 6.4 12.9 0.00 0.00 0.00 65 1015.6
20260508000227 18 360 6.4 12.9 0.00 0.00 0.00 65 1015.6
20260508000132 18 360 4.8 12.9 0.00 0.00 0.00 65 1015.6
20260508000032 19 360 6.4 12.9 0.00 0.00 0.00 65 1015.7
20260507235932 19 360 6.4 12.9 0.00 0.00 0.00 65 1015.8
20260507235832 19 360 6.4 12.9 0.00 0.00 0.00 65 1015.8
20260507235734 19 360 6.4 12.9 0.00 0.00 0.00 65 1015.9
20260507235633 19 360 6.4 12.9 0.00 0.00 0.00 65 1015.9
20260507235518 19 76 6.4 14.5 0.00 0.00 0.00 65 1016.0
20260507235419 19 360 6.4 14.5 0.00 0.00 0.00 65 1016.2
20260507235319 19 360 6.4 14.5 0.00 0.00 0.00 65 1016.1
20260507235240 19 360 6.4 14.5 0.00 0.00 0.00 65 1016.2
20260507235119 19 360 6.4 14.5 0.00 0.00 0.00 65 1016.2
20260507235022 19 360 6.4 14.5 0.00 0.00 0.00 65 1016.2
20260507234922 19 360 8.0 14.5 0.00 0.00 0.00 65 1016.2
20260507234827 19 360 8.0 14.5 0.00 0.00 0.00 65 1016.2
20260507234748 19 360 8.0 14.5 0.00 0.00 0.00 65 1016.2
20260507234626 19 360 8.0 14.5 0.00 0.00 0.00 65 1016.2
20260507234527 19 360 8.0 14.5 0.00 0.00 0.00 65 1016.2
20260507234428 19 360 8.0 14.5 0.00 0.00 0.00 65 1016.2
20260507234328 19 90 8.0 14.5 0.00 0.00 0.00 65 1016.2
20260507234228 19 360 6.4 14.5 0.00 0.00 0.00 65 1016.2
20260507234149 20 360 6.4 14.5 0.00 0.00 0.00 65 1016.2
20260507234032 20 360 8.0 14.5 0.00 0.00 0.00 65 1016.2
20260507233931 20 360 8.0 14.5 0.00 0.00 0.00 65 1016.1
20260507233852 20 79 8.0 14.5 0.00 0.00 0.00 65 1016.3
20260507233731 20 360 8.0 14.5 0.00 0.00 0.00 65 1016.3
20260507233631 20 360 6.4 14.5 0.00 0.00 0.00 65 1016.4
20260507233531 19 360 6.4 14.5 0.00 0.00 0.00 65 1016.4
20260507233431 20 360 8.0 14.5 0.00 0.00 0.00 65 1016.4
20260507233316 19 360 8.0 14.5 0.00 0.00 0.00 65 1016.2
20260507233218 19 360 8.0 14.5 0.00 0.00 0.00 64 1016.2
20260507233118 19 360 8.0 14.5 0.00 0.00 0.00 64 1016.1
20260507233019 19 360 8.0 14.5 0.00 0.00 0.00 64 1016.1
20260507232940 19 360 8.0 14.5 0.00 0.00 0.00 63 1016.2
20260507232841 20 360 8.0 14.5 0.00 0.00 0.00 64 1016.2
20260507232719 20 360 8.0 14.5 0.00 0.00 0.00 64 1016.2
20260507232621 20 360 8.0 14.5 0.00 0.00 0.00 64 1016.2
20260507232546 20 360 8.0 14.5 0.00 0.00 0.00 64 1016.3
20260507232445 20 77 8.0 14.5 0.00 0.00 0.00 64 1016.3
20260507232324 20 360 6.4 14.5 0.00 0.00 0.00 64 1016.3
20260507232225 20 360 6.4 14.5 0.00 0.00 0.00 65 1016.2
20260507232125 20 360 4.8 14.5 0.00 0.00 0.00 65 1016.3
20260507232025 20 360 4.8 14.5 0.00 0.00 0.00 65 1016.3
20260507231926 20 360 4.8 16.1 0.00 0.00 0.00 65 1016.2
20260507231830 20 360 4.8 16.1 0.00 0.00 0.00 65 1016.2
20260507231731 20 360 4.8 16.1 0.00 0.00 0.00 65 1016.2
20260507231631 20 93 6.4 16.1 0.00 0.00 0.00 65 1016.2
20260507231531 20 360 6.4 16.1 0.00 0.00 0.00 65 1016.3
20260507231431 20 347 8.0 16.1 0.00 0.00 0.00 65 1016.2
20260507231330 20 360 8.0 16.1 0.00 0.00 0.00 64 1016.2
20260507231231 20 360 8.0 16.1 0.00 0.00 0.00 64 1016.2
20260507231150 20 360 6.4 16.1 0.00 0.00 0.00 64 1016.2
20260507231034 20 360 6.4 16.1 0.00 0.00 0.00 64 1016.3
20260507230935 20 360 4.8 9.7 0.00 0.00 0.00 64 1016.3
20260507230836 20 360 4.8 9.7 0.00 0.00 0.00 64 1016.2
20260507230736 20 360 4.8 9.7 0.00 0.00 0.00 64 1016.2
20260507230617 20 360 4.8 8.0 0.00 0.00 0.00 64 1016.1
20260507230518 20 360 4.8 8.0 0.00 0.00 0.00 64 1016.0
20260507230422 20 360 4.8 9.7 0.00 0.00 0.00 65 1016.0
20260507230323 20 360 4.8 9.7 0.00 0.00 0.00 65 1016.0
20260507230224 20 360 4.8 9.7 0.00 0.00 0.00 64 1016.0
20260507230123 20 360 4.8 9.7 0.00 0.00 0.00 64 1016.0
20260507230024 20 360 4.8 9.7 0.00 0.00 0.00 64 1016.0
20260507225924 20 360 4.8 9.7 0.00 0.00 0.00 64 1016.0
20260507225829 20 360 4.8 9.7 0.00 0.00 0.00 63 1016.0
20260507225730 20 76 4.8 9.7 0.00 0.00 0.00 63 1016.0
20260507225629 20 360 4.8 9.7 0.00 0.00 0.00 63 1016.1
20260507225530 20 360 4.8 14.5 0.00 0.00 0.00 63 1016.2
20260507225450 20 360 4.8 14.5 0.00 0.00 0.00 63 1016.2
20260507225330 20 360 4.8 16.1 0.00 0.00 0.00 63 1016.4
20260507225230 20 360 4.8 16.1 0.00 0.00 0.00 64 1016.4
20260507225130 20 43 4.8 16.1 0.00 0.00 0.00 64 1016.5
20260507225034 20 360 6.4 16.1 0.00 0.00 0.00 64 1016.5
20260507224934 20 360 8.0 16.1 0.00 0.00 0.00 63 1016.6
20260507224835 20 53 9.7 16.1 0.00 0.00 0.00 63 1016.6
20260507224735 20 41 9.7 16.1 0.00 0.00 0.00 62 1016.6
20260507224635 20 360 11.3 16.1 0.00 0.00 0.00 62 1016.6
20260507224553 20 360 11.3 16.1 0.00 0.00 0.00 62 1016.6
20260507224433 20 360 11.3 16.1 0.00 0.00 0.00 63 1016.6
20260507224317 20 360 9.7 16.1 0.00 0.00 0.00 63 1016.6
20260507224217 20 360 9.7 16.1 0.00 0.00 0.00 63 1016.5
20260507224117 20 360 9.7 17.7 0.00 0.00 0.00 63 1016.5
20260507224020 20 360 8.0 17.7 0.00 0.00 0.00 63 1016.5
20260507223940 20 360 6.4 17.7 0.00 0.00 0.00 63 1016.5
20260507223840 20 360 6.4 17.7 0.00 0.00 0.00 63 1016.5
20260507223719 20 360 8.0 17.7 0.00 0.00 0.00 64 1016.6
20260507223624 20 360 8.0 17.7 0.00 0.00 0.00 63 1016.7
20260507223524 20 360 8.0 17.7 0.00 0.00 0.00 63 1016.6
20260507223424 20 360 8.0 17.7 0.00 0.00 0.00 63 1016.6
20260507223325 20 360 8.0 17.7 0.00 0.00 0.00 65 1016.7
20260507223227 20 360 8.0 16.1 0.00 0.00 0.00 64 1016.7
20260507223127 20 360 8.0 19.3 0.00 0.00 0.00 64 1016.6
20260507223047 20 360 8.0 19.3 0.00 0.00 0.00 64 1016.7
20260507222946 20 360 8.0 19.3 0.00 0.00 0.00 64 1016.7
20260507222830 20 360 8.0 19.3 0.00 0.00 0.00 64 1016.7
20260507222732 20 360 9.7 19.3 0.00 0.00 0.00 63 1016.7
20260507222632 20 360 9.7 19.3 0.00 0.00 0.00 63 1016.7
20260507222531 20 360 9.7 19.3 0.00 0.00 0.00 63 1016.8
20260507222432 20 360 9.7 19.3 0.00 0.00 0.00 63 1016.8
20260507222333 20 53 9.7 19.3 0.00 0.00 0.00 62 1016.9
20260507222218 20 360 8.0 19.3 0.00 0.00 0.00 63 1017.0
20260507222118 20 360 6.4 17.7 0.00 0.00 0.00 65 1017.0
20260507222019 20 360 6.4 17.7 0.00 0.00 0.00 65 1016.8
20260507221940 20 360 4.8 12.9 0.00 0.00 0.00 65 1016.9
20260507221820 20 360 4.8 11.3 0.00 0.00 0.00 65 1016.8
20260507221720 20 360 4.8 11.3 0.00 0.00 0.00 65 1016.8
20260507221641 20 360 4.8 11.3 0.00 0.00 0.00 65 1016.8
20260507221523 20 360 4.8 16.1 0.00 0.00 0.00 65 1016.8
20260507221423 20 360 4.8 16.1 0.00 0.00 0.00 65 1017.0
20260507221323 20 360 6.4 16.1 0.00 0.00 0.00 65 1016.9
20260507221224 20 360 6.4 16.1 0.00 0.00 0.00 65 1016.9
20260507221124 20 360 6.4 16.1 0.00 0.00 0.00 64 1016.9
20260507221024 20 360 6.4 16.1 0.00 0.00 0.00 64 1016.9
20260507220925 20 360 8.0 16.1 0.00 0.00 0.00 65 1016.8
20260507220830 20 360 8.0 16.1 0.00 0.00 0.00 64 1016.8
20260507220730 20 360 9.7 16.1 0.00 0.00 0.00 64 1016.9
20260507220629 20 360 9.7 16.1 0.00 0.00 0.00 64 1016.9
20260507220529 20 360 8.0 14.5 0.00 0.00 0.00 64 1017.0
20260507220450 20 360 8.0 14.5 0.00 0.00 0.00 63 1017.0
20260507220328 20 360 8.0 16.1 0.00 0.00 0.00 64 1017.0
20260507220230 20 360 8.0 16.1 0.00 0.00 0.00 63 1017.0
20260507220151 20 360 8.0 16.1 0.00 0.00 0.00 64 1017.0
20260507220030 20 360 8.0 16.1 0.00 0.00 0.00 64 1017.0
20260507215955 20 360 6.4 20.9 0.00 0.00 0.00 64 1017.0
20260507215833 20 360 6.4 20.9 0.00 0.00 0.00 64 1017.0
20260507215755 20 37 8.0 20.9 0.00 0.00 0.00 64 1017.0
20260507215635 20 360 8.0 20.9 0.00 0.00 0.00 64 1017.0
20260507215535 20 360 9.7 20.9 0.00 0.00 0.00 63 1016.9
20260507215455 20 360 11.3 20.9 0.00 0.00 0.00 63 1016.9
20260507215335 20 360 9.7 20.9 0.00 0.00 0.00 62 1016.9
20260507215254 20 360 11.3 20.9 0.00 0.00 0.00 62 1016.9
20260507215118 20 360 12.9 20.9 0.00 0.00 0.00 62 1016.9
20260507215018 20 360 11.3 19.3 0.00 0.00 0.00 62 1016.9
20260507214918 20 37 11.3 19.3 0.00 0.00 0.00 62 1016.9
20260507214820 20 360 11.3 19.3 0.00 0.00 0.00 62 1016.8
20260507214720 20 360 11.3 19.3 0.00 0.00 0.00 62 1016.8
20260507214620 20 360 11.3 19.3 0.00 0.00 0.00 63 1016.8
20260507214520 20 360 11.3 19.3 0.00 0.00 0.00 63 1016.8
20260507214423 20 360 9.7 19.3 0.00 0.00 0.00 63 1016.9
20260507214344 20 360 9.7 19.3 0.00 0.00 0.00 62 1016.9
20260507214223 20 360 9.7 19.3 0.00 0.00 0.00 62 1016.9
20260507214124 20 360 8.0 19.3 0.00 0.00 0.00 63 1016.9
20260507214023 20 15 8.0 19.3 0.00 0.00 0.00 64 1017.0
20260507213924 20 360 8.0 19.3 0.00 0.00 0.00 63 1017.0
20260507213824 20 360 9.7 19.3 0.00 0.00 0.00 63 1016.9
20260507213725 19 360 9.7 20.9 0.00 0.00 0.00 63 1017.0
20260507213629 19 360 11.3 20.9 0.00 0.00 0.00 63 1017.0
20260507213530 19 360 11.3 20.9 0.00 0.00 0.00 63 1017.0
20260507213430 19 360 11.3 20.9 0.00 0.00 0.00 62 1016.9
20260507213350 19 360 11.3 20.9 0.00 0.00 0.00 62 1016.9
20260507213230 19 360 11.3 20.9 0.00 0.00 0.00 62 1016.8
20260507213129 19 360 11.3 20.9 0.00 0.00 0.00 62 1016.9
20260507213030 19 360 11.3 20.9 0.00 0.00 0.00 62 1016.9
20260507212955 20 360 9.7 20.9 0.00 0.00 0.00 62 1016.9
20260507212834 20 360 11.3 20.9 0.00 0.00 0.00 62 1017.0
20260507212736 20 360 11.3 22.5 0.00 0.00 0.00 62 1016.9
20260507212635 20 360 11.3 22.5 0.00 0.00 0.00 62 1016.9
20260507212536 20 360 12.9 22.5 0.00 0.00 0.00 61 1016.9
20260507212435 20 360 11.3 22.5 0.00 0.00 0.00 61 1017.0
20260507212335 20 360 11.3 22.5 0.00 0.00 0.00 62 1017.0
20260507212220 20 360 11.3 22.5 0.00 0.00 0.00 62 1016.9
20260507212120 20 360 11.3 22.5 0.00 0.00 0.00 62 1016.7
20260507212021 20 360 12.9 22.5 0.00 0.00 0.00 63 1016.7
20260507211921 20 360 12.9 22.5 0.00 0.00 0.00 63 1016.6
20260507211822 19 360 11.3 22.5 0.00 0.00 0.00 63 1016.5
20260507211724 19 360 12.9 22.5 0.00 0.00 0.00 63 1016.6
20260507211644 19 360 12.9 22.5 0.00 0.00 0.00 63 1016.6
20260507211528 19 360 11.3 24.1 0.00 0.00 0.00 63 1016.6
20260507211429 19 360 11.3 24.1 0.00 0.00 0.00 63 1016.8
20260507211350 19 360 11.3 24.1 0.00 0.00 0.00 63 1016.8
20260507211228 19 360 12.9 24.1 0.00 0.00 0.00 62 1016.9
20260507211129 19 360 12.9 24.1 0.00 0.00 0.00 62 1017.0
20260507211030 20 360 12.9 24.1 0.00 0.00 0.00 62 1017.0
20260507210931 20 360 11.3 24.1 0.00 0.00 0.00 62 1017.0
20260507210836 20 360 11.3 24.1 0.00 0.00 0.00 62 1017.1
20260507210735 20 360 11.3 24.1 0.00 0.00 0.00 62 1017.1
20260507210616 20 360 11.3 24.1 0.00 0.00 0.00 64 1017.1
20260507210516 20 360 11.3 24.1 0.00 0.00 0.00 64 1017.0
20260507210417 20 360 9.7 24.1 0.00 0.00 0.00 64 1017.0
20260507210318 19 360 9.7 24.1 0.00 0.00 0.00 64 1017.0
20260507210222 19 360 8.0 24.1 0.00 0.00 0.00 66 1017.0
20260507210142 19 360 9.7 24.1 0.00 0.00 0.00 66 1016.9
20260507210021 19 360 11.3 24.1 0.00 0.00 0.00 66 1016.8
20260507205922 19 360 9.7 24.1 0.00 0.00 0.00 66 1016.8
20260507205824 18 360 11.3 24.1 0.00 0.00 0.00 66 1016.7
20260507205724 18 360 11.3 24.1 0.00 0.00 0.00 66 1016.7
20260507205624 18 360 11.3 24.1 0.00 0.00 0.00 65 1016.7
20260507205529 18 360 11.3 24.1 0.00 0.00 0.00 65 1016.7
20260507205429 18 360 11.3 24.1 0.00 0.00 0.00 65 1016.7
20260507205328 18 360 11.3 24.1 0.00 0.00 0.00 65 1016.8
20260507205248 18 360 12.9 24.1 0.00 0.00 0.00 65 1016.8
20260507205126 18 360 11.3 24.1 0.00 0.00 0.00 66 1016.8
20260507205026 18 360 12.9 24.1 0.00 0.00 0.00 66 1016.8
20260507204927 18 360 12.9 24.1 0.00 0.00 0.00 65 1016.8
20260507204828 18 360 12.9 24.1 0.00 0.00 0.00 65 1016.8
20260507204747 18 360 14.5 24.1 0.00 0.00 0.00 65 1016.8
20260507204632 18 360 16.1 25.7 0.00 0.00 0.00 65 1016.8
20260507204533 18 360 16.1 25.7 0.00 0.00 0.00 66 1016.8
20260507204432 18 360 16.1 25.7 0.00 0.00 0.00 66 1016.8
20260507204332 18 360 16.1 25.7 0.00 0.00 0.00 66 1016.8
20260507204232 18 360 17.7 25.7 0.00 0.00 0.00 65 1016.8
20260507204155 18 360 16.1 25.7 0.00 0.00 0.00 65 1016.9
20260507204035 18 360 16.1 25.7 0.00 0.00 0.00 65 1017.0
20260507203919 18 360 14.5 25.7 0.00 0.00 0.00 65 1017.0
20260507203820 18 360 14.5 25.7 0.00 0.00 0.00 65 1017.0
20260507203721 18 42 14.5 25.7 0.00 0.00 0.00 64 1017.2
20260507203620 18 360 14.5 25.7 0.00 0.00 0.00 64 1017.2
20260507203521 18 360 12.9 22.5 0.00 0.00 0.00 64 1017.2
20260507203421 18 360 12.9 22.5 0.00 0.00 0.00 64 1017.2
20260507203342 18 360 12.9 25.7 0.00 0.00 0.00 64 1017.3
20260507203226 18 360 14.5 25.7 0.00 0.00 0.00 65 1017.3
20260507203127 18 360 14.5 25.7 0.00 0.00 0.00 65 1017.4
20260507203029 18 360 12.9 25.7 0.00 0.00 0.00 65 1017.5
20260507202930 18 360 11.3 25.7 0.00 0.00 0.00 65 1017.5
20260507202831 18 360 11.3 25.7 0.00 0.00 0.00 65 1017.6
20260507202732 18 360 11.3 25.7 0.00 0.00 0.00 65 1017.7
20260507202616 18 360 9.7 25.7 0.00 0.00 0.00 66 1017.6
20260507202517 18 360 9.7 25.7 0.00 0.00 0.00 66 1017.7
20260507202434 18 47 9.7 20.9 0.00 0.00 0.00 66 1017.7
20260507202337 18 360 11.3 20.9 0.00 0.00 0.00 66 1017.7
20260507202238 18 360 11.3 20.9 0.00 0.00 0.00 66 1017.6
20260507202118 18 360 11.3 20.9 0.00 0.00 0.00 65 1017.6
20260507202018 18 360 11.3 20.9 0.00 0.00 0.00 66 1017.6
20260507201918 18 360 11.3 20.9 0.00 0.00 0.00 66 1017.6
20260507201824 18 360 11.3 20.9 0.00 0.00 0.00 66 1017.7
20260507201744 18 360 11.3 22.5 0.00 0.00 0.00 66 1017.7
20260507201623 18 360 11.3 22.5 0.00 0.00 0.00 66 1017.7
20260507201544 18 360 9.7 22.5 0.00 0.00 0.00 66 1017.7
20260507201424 18 360 11.3 22.5 0.00 0.00 0.00 66 1017.6
20260507201324 18 360 11.3 22.5 0.00 0.00 0.00 66 1017.5
20260507201225 18 360 12.9 22.5 0.00 0.00 0.00 66 1017.6
20260507201131 18 360 12.9 25.7 0.00 0.00 0.00 66 1017.6
20260507201051 18 360 14.5 25.7 0.00 0.00 0.00 66 1017.6
20260507200931 18 360 14.5 25.7 0.00 0.00 0.00 66 1017.7
20260507200832 18 360 16.1 25.7 0.00 0.00 0.00 66 1017.6
20260507200752 18 360 16.1 25.7 0.00 0.00 0.00 66 1017.7
20260507200632 18 360 16.1 25.7 0.00 0.00 0.00 66 1017.6
20260507200533 18 360 14.5 25.7 0.00 0.00 0.00 66 1017.7
20260507200417 18 360 14.5 25.7 0.00 0.00 0.00 66 1017.7
20260507200317 18 360 14.5 25.7 0.00 0.00 0.00 66 1017.8
20260507200219 18 360 14.5 25.7 0.00 0.00 0.00 67 1017.7
20260507200119 18 360 14.5 25.7 0.00 0.00 0.00 67 1017.8
20260507200020 19 360 14.5 24.1 0.00 0.00 0.00 67 1017.7
20260507195941 18 360 14.5 24.1 0.00 0.00 0.00 67 1017.6
20260507195822 18 323 14.5 24.1 0.00 0.00 0.00 67 1017.5
20260507195741 19 360 12.9 24.1 0.00 0.00 0.00 67 1017.5
20260507195625 19 360 12.9 24.1 0.00 0.00 0.00 67 1017.4
20260507195526 19 360 12.9 24.1 0.00 0.00 0.00 67 1017.4
20260507195425 19 360 12.9 24.1 0.00 0.00 0.00 67 1017.4
20260507195326 19 360 12.9 24.1 0.00 0.00 0.00 67 1017.4
20260507195227 18 360 11.3 24.1 0.00 0.00 0.00 67 1017.4
20260507195127 18 360 12.9 24.1 0.00 0.00 0.00 67 1017.4
20260507195028 18 360 12.9 24.1 0.00 0.00 0.00 67 1017.4
20260507194932 18 360 12.9 20.9 0.00 0.00 0.00 67 1017.6
20260507194833 18 360 12.9 20.9 0.00 0.00 0.00 67 1017.7
20260507194733 18 360 11.3 20.9 0.00 0.00 0.00 67 1017.9
20260507194634 18 360 11.3 24.1 0.00 0.00 0.00 67 1018.0
20260507194534 18 360 11.3 24.1 0.00 0.00 0.00 67 1018.0
20260507194435 18 360 11.3 24.1 0.00 0.00 0.00 67 1018.1
20260507194319 18 360 11.3 24.1 0.00 0.00 0.00 66 1018.0
20260507194220 18 360 11.3 24.1 0.00 0.00 0.00 67 1018.0
20260507194140 18 360 11.3 24.1 0.00 0.00 0.00 67 1018.0
20260507194019 18 360 12.9 24.1 0.00 0.00 0.00 68 1017.9
20260507193919 18 360 12.9 24.1 0.00 0.00 0.00 68 1017.9
20260507193819 18 360 12.9 24.1 0.00 0.00 0.00 68 1017.9
20260507193719 18 360 12.9 24.1 0.00 0.00 0.00 68 1017.8
20260507193621 18 360 14.5 24.1 0.00 0.00 0.00 68 1017.8
20260507193526 18 360 14.5 24.1 0.00 0.00 0.00 68 1017.9
20260507193425 18 360 14.5 24.1 0.00 0.00 0.00 68 1017.9
20260507193326 18 360 12.9 24.1 0.00 0.00 0.00 68 1017.8
20260507193225 18 360 11.3 24.1 0.00 0.00 0.00 68 1017.9
20260507193126 18 49 11.3 22.5 0.00 0.00 0.00 68 1017.9
20260507193026 18 360 9.7 22.5 0.00 0.00 0.00 68 1017.8
20260507192926 18 360 9.7 22.5 0.00 0.00 0.00 69 1017.8
20260507192830 18 360 8.0 19.3 0.00 0.00 0.00 70 1017.8
20260507192753 18 64 8.0 17.7 0.00 0.00 0.00 70 1017.9
20260507192630 18 360 8.0 17.7 0.00 0.00 0.00 70 1018.0
20260507192552 18 360 9.7 17.7 0.00 0.00 0.00 70 1017.9
20260507192433 18 360 9.7 17.7 0.00 0.00 0.00 70 1018.0
20260507192353 18 360 9.7 17.7 0.00 0.00 0.00 71 1018.0
20260507192232 18 360 9.7 17.7 0.00 0.00 0.00 71 1018.0
20260507192116 18 360 9.7 17.7 0.00 0.00 0.00 70 1018.2
20260507192017 18 360 9.7 17.7 0.00 0.00 0.00 71 1018.2
20260507191918 18 360 8.0 16.1 0.00 0.00 0.00 71 1018.2
20260507191839 18 360 8.0 16.1 0.00 0.00 0.00 71 1018.3
20260507191717 18 360 8.0 16.1 0.00 0.00 0.00 71 1018.3
20260507191618 17 360 8.0 16.1 0.00 0.00 0.00 71 1018.3
20260507191519 17 360 8.0 16.1 0.00 0.00 0.00 71 1018.2
20260507191439 17 360 6.4 16.1 0.00 0.00 0.00 72 1018.2
20260507191323 17 360 6.4 16.1 0.00 0.00 0.00 72 1018.2
20260507191223 17 360 8.0 16.1 0.00 0.00 0.00 72 1018.2
20260507191124 17 360 8.0 16.1 0.00 0.00 0.00 72 1018.2
20260507191045 17 360 8.0 16.1 0.00 0.00 0.00 72 1018.2
20260507190924 17 360 8.0 16.1 0.00 0.00 0.00 72 1018.2
20260507190824 17 360 8.0 16.1 0.00 0.00 0.00 72 1018.1
20260507190723 17 360 8.0 16.1 0.00 0.00 0.00 72 1018.1
20260507190628 17 360 8.0 14.5 0.00 0.00 0.00 72 1018.1
20260507190529 17 360 8.0 14.5 0.00 0.00 0.00 72 1018.2
20260507190430 17 360 6.4 14.5 0.00 0.00 0.00 73 1018.2
20260507190330 17 360 6.4 12.9 0.00 0.00 0.00 73 1018.2
20260507190230 17 360 4.8 12.9 0.00 0.00 0.00 73 1018.4
20260507190131 17 360 6.4 14.5 0.00 0.00 0.00 73 1018.4
20260507190031 17 360 4.8 14.5 0.00 0.00 0.00 73 1018.5
20260507185935 17 70 6.4 19.3 0.00 0.00 0.00 72 1018.4
20260507185834 17 360 6.4 19.3 0.00 0.00 0.00 72 1018.3
20260507185736 17 360 8.0 19.3 0.00 0.00 0.00 72 1018.1
20260507185656 17 360 8.0 19.3 0.00 0.00 0.00 72 1018.0
20260507185535 17 360 9.7 19.3 0.00 0.00 0.00 72 1018.0
20260507185416 17 82 11.3 19.3 0.00 0.00 0.00 72 1018.0
20260507185319 17 360 11.3 19.3 0.00 0.00 0.00 72 1018.1
20260507185220 17 360 11.3 19.3 0.00 0.00 0.00 71 1018.0
20260507185121 17 360 11.3 19.3 0.00 0.00 0.00 71 1018.0
20260507185021 17 66 11.3 19.3 0.00 0.00 0.00 71 1018.0
20260507184943 17 360 11.3 17.7 0.00 0.00 0.00 71 1018.0
20260507184816 17 360 9.7 17.7 0.00 0.00 0.00 71 1018.2
20260507184717 17 360 11.3 17.7 0.00 0.00 0.00 71 1018.3
20260507184622 17 360 11.3 17.7 0.00 0.00 0.00 71 1018.3
20260507184521 17 360 11.3 17.7 0.00 0.00 0.00 71 1018.4
20260507184443 17 360 11.3 17.7 0.00 0.00 0.00 71 1018.4
20260507184316 17 360 9.7 17.7 0.00 0.00 0.00 72 1018.5
20260507184216 17 360 9.7 17.7 0.00 0.00 0.00 72 1018.5
20260507184118 17 360 9.7 17.7 0.00 0.00 0.00 72 1018.6
20260507184023 17 360 9.7 17.7 0.00 0.00 0.00 72 1018.7
20260507183921 17 360 9.7 17.7 0.00 0.00 0.00 72 1018.7
20260507183822 17 70 9.7 17.7 0.00 0.00 0.00 72 1018.6
20260507183723 17 360 11.3 17.7 0.00 0.00 0.00 72 1018.6
20260507183643 17 360 11.3 19.3 0.00 0.00 0.00 72 1018.5
20260507183523 17 360 11.3 19.3 0.00 0.00 0.00 72 1018.6
20260507183444 17 360 11.3 19.3 0.00 0.00 0.00 72 1018.6
20260507183343 17 360 11.3 19.3 0.00 0.00 0.00 72 1018.6
20260507183223 17 360 11.3 19.3 0.00 0.00 0.00 71 1018.6
20260507183128 17 360 11.3 19.3 0.00 0.00 0.00 72 1018.6
20260507183028 17 360 9.7 19.3 0.00 0.00 0.00 72 1018.6
20260507182928 17 360 9.7 19.3 0.00 0.00 0.00 72 1018.6
20260507182849 17 91 9.7 19.3 0.00 0.00 0.00 72 1018.7
20260507182726 17 360 9.7 19.3 0.00 0.00 0.00 72 1018.6
20260507182648 17 360 8.0 22.5 0.00 0.00 0.00 72 1018.6
20260507182547 17 360 9.7 22.5 0.00 0.00 0.00 72 1018.6
20260507182447 17 360 9.7 22.5 0.00 0.00 0.00 72 1018.6
20260507182326 17 360 9.7 22.5 0.00 0.00 0.00 72 1018.8
20260507182230 17 360 9.7 22.5 0.00 0.00 0.00 72 1018.8
20260507182150 17 360 9.7 22.5 0.00 0.00 0.00 72 1018.8
20260507182030 17 360 11.3 22.5 0.00 0.00 0.00 72 1018.8
20260507181930 17 360 11.3 22.5 0.00 0.00 0.00 73 1018.8
20260507181831 17 360 9.7 22.5 0.00 0.00 0.00 73 1018.8
20260507181732 17 360 9.7 19.3 0.00 0.00 0.00 73 1018.7
20260507181652 17 360 8.0 16.1 0.00 0.00 0.00 72 1018.7
20260507181517 17 360 9.7 17.7 0.00 0.00 0.00 73 1018.6
20260507181418 17 360 8.0 17.7 0.00 0.00 0.00 73 1018.6
20260507181318 17 360 8.0 24.1 0.00 0.00 0.00 73 1018.6
20260507181218 17 360 8.0 24.1 0.00 0.00 0.00 73 1018.7
20260507181119 17 360 8.0 24.1 0.00 0.00 0.00 73 1018.7
20260507181019 17 360 9.7 24.1 0.00 0.00 0.00 72 1018.8
20260507180920 17 360 11.3 24.1 0.00 0.00 0.00 73 1018.8
20260507180824 17 360 11.3 24.1 0.00 0.00 0.00 73 1018.8
20260507180724 17 12 12.9 24.1 0.00 0.00 0.00 73 1018.7
20260507180625 17 360 12.9 24.1 0.00 0.00 0.00 73 1018.6
20260507180525 17 360 12.9 24.1 0.00 0.00 0.00 73 1018.5
20260507180426 17 360 12.9 22.5 0.00 0.00 0.00 74 1018.4
20260507180345 17 360 11.3 22.5 0.00 0.00 0.00 74 1018.4
20260507180224 17 360 9.7 19.3 0.00 0.00 0.00 73 1018.4
20260507180129 17 360 9.7 19.3 0.00 0.00 0.00 74 1018.4
20260507180029 17 360 8.0 19.3 0.00 0.00 0.00 74 1018.4
20260507175929 17 360 8.0 19.3 0.00 0.00 0.00 75 1018.5
20260507175830 17 360 8.0 19.3 0.00 0.00 0.00 75 1018.4
20260507175730 16 360 9.7 20.9 0.00 0.00 0.00 75 1018.4
20260507175630 16 360 9.7 20.9 0.00 0.00 0.00 74 1018.5
20260507175534 16 360 11.3 20.9 0.00 0.00 0.00 75 1018.5
20260507175435 16 360 11.3 20.9 0.00 0.00 0.00 75 1018.4
20260507175334 16 360 9.7 20.9 0.00 0.00 0.00 76 1018.6
20260507175236 16 360 9.7 20.9 0.00 0.00 0.00 76 1018.6
20260507175136 16 360 9.7 20.9 0.00 0.00 0.00 76 1018.6
20260507175056 16 360 9.7 20.9 0.00 0.00 0.00 75 1018.5
20260507174935 16 360 11.3 20.9 0.00 0.00 0.00 75 1018.4
20260507174819 16 360 11.3 19.3 0.00 0.00 0.00 76 1018.2
20260507174740 16 360 11.3 19.3 0.00 0.00 0.00 76 1018.3
20260507174620 16 360 11.3 19.3 0.00 0.00 0.00 76 1018.3
20260507174520 16 360 9.7 19.3 0.00 0.00 0.00 76 1018.3
20260507174420 16 360 9.7 19.3 0.00 0.00 0.00 76 1018.3
20260507174322 16 360 9.7 19.3 0.00 0.00 0.00 76 1018.3
20260507174243 16 360 9.7 19.3 0.00 0.00 0.00 77 1018.4
20260507174127 16 360 9.7 19.3 0.00 0.00 0.00 76 1018.4
20260507174028 16 360 12.9 19.3 0.00 0.00 0.00 76 1018.4
20260507173929 16 360 12.9 20.9 0.00 0.00 0.00 76 1018.3
20260507173830 16 360 11.3 20.9 0.00 0.00 0.00 76 1018.3
20260507173731 16 360 11.3 20.9 0.00 0.00 0.00 76 1018.1
20260507173631 16 360 11.3 20.9 0.00 0.00 0.00 76 1018.1
20260507173531 16 360 11.3 20.9 0.00 0.00 0.00 76 1018.2
20260507173416 16 360 12.9 20.9 0.00 0.00 0.00 77 1018.4
20260507173336 16 360 12.9 20.9 0.00 0.00 0.00 77 1018.4
20260507173236 16 360 12.9 20.9 0.00 0.00 0.00 77 1018.5
20260507173135 16 360 11.3 20.9 0.00 0.00 0.00 77 1018.5
20260507173016 16 360 9.7 17.7 0.00 0.00 0.00 76 1018.6
20260507172916 16 360 8.0 14.5 0.00 0.00 0.00 77 1018.6
20260507172822 16 360 8.0 14.5 0.00 0.00 0.00 77 1018.6
20260507172721 16 360 6.4 14.5 0.00 0.00 0.00 77 1018.7
20260507172621 16 360 6.4 14.5 0.00 0.00 0.00 77 1018.7
20260507172522 16 360 8.0 16.1 0.00 0.00 0.00 78 1018.6
20260507172422 16 360 6.4 16.1 0.00 0.00 0.00 78 1018.6
20260507172323 16 360 8.0 16.1 0.00 0.00 0.00 78 1018.7
20260507172224 16 360 8.0 16.1 0.00 0.00 0.00 78 1018.7
20260507172129 16 360 8.0 16.1 0.00 0.00 0.00 78 1018.7
20260507172049 16 360 8.0 16.1 0.00 0.00 0.00 78 1018.7
20260507171929 16 360 8.0 16.1 0.00 0.00 0.00 78 1018.7
20260507171827 16 78 6.4 16.1 0.00 0.00 0.00 78 1018.7
20260507171727 16 360 6.4 16.1 0.00 0.00 0.00 78 1018.6
20260507171648 16 360 6.4 16.1 0.00 0.00 0.00 78 1018.6
20260507171527 15 360 8.0 16.1 0.00 0.00 0.00 78 1018.7
20260507171428 15 79 9.7 16.1 0.00 0.00 0.00 78 1018.7
20260507171330 15 360 9.7 16.1 0.00 0.00 0.00 78 1018.7
20260507171231 15 360 9.7 16.1 0.00 0.00 0.00 77 1018.8
20260507171131 15 360 9.7 16.1 0.00 0.00 0.00 77 1018.7
20260507171031 15 360 8.0 16.1 0.00 0.00 0.00 79 1018.8
20260507170932 16 360 8.0 17.7 0.00 0.00 0.00 79 1018.8
20260507170832 15 37 6.4 17.7 0.00 0.00 0.00 78 1018.9
20260507170717 15 360 6.4 17.7 0.00 0.00 0.00 78 1018.9
20260507170618 15 360 6.4 17.7 0.00 0.00 0.00 79 1018.9
20260507170538 15 360 8.0 17.7 0.00 0.00 0.00 79 1018.8
20260507170418 15 360 9.7 17.7 0.00 0.00 0.00 79 1018.7
20260507170317 15 360 9.7 17.7 0.00 0.00 0.00 79 1018.6
20260507170219 15 360 9.7 17.7 0.00 0.00 0.00 79 1018.7
20260507170139 15 360 9.7 17.7 0.00 0.00 0.00 79 1018.7
20260507170019 16 360 8.0 17.7 0.00 0.00 0.00 79 1018.8
20260507165943 16 360 9.7 17.7 0.00 0.00 0.00 79 1018.8
20260507165844 16 360 11.3 17.7 0.00 0.00 0.00 79 1018.8
20260507165716 16 360 9.7 17.7 0.00 0.00 0.00 79 1018.7
20260507165637 16 360 9.7 17.7 0.00 0.00 0.00 78 1018.7
20260507165516 16 360 8.0 17.7 0.00 0.00 0.00 79 1018.8
20260507165417 16 360 8.0 17.7 0.00 0.00 0.00 79 1019.1
20260507165318 16 360 9.7 17.7 0.00 0.00 0.00 79 1019.1
20260507165238 16 360 9.7 17.7 0.00 0.00 0.00 79 1019.1
20260507165203 16 44 9.7 17.7 0.00 0.00 0.00 79 1019.1
20260507165104 16 360 8.0 17.7 0.00 0.00 0.00 80 1019.2
20260507164916 15 360 8.0 17.7 0.00 0.00 0.00 80 1019.1
20260507164816 15 360 8.0 19.3 0.00 0.00 0.00 80 1019.1
20260507164717 15 360 9.7 20.9 0.00 0.00 0.00 80 1019.2
20260507164617 15 20 9.7 20.9 0.00 0.00 0.00 80 1019.2
20260507164518 15 360 9.7 20.9 0.00 0.00 0.00 80 1019.2
20260507164423 15 360 9.7 20.9 0.00 0.00 0.00 80 1019.1
20260507164324 15 360 9.7 20.9 0.00 0.00 0.00 80 1019.1
20260507164224 15 360 9.7 20.9 0.00 0.00 0.00 80 1019.1
20260507164125 15 360 9.7 20.9 0.00 0.00 0.00 80 1019.0
20260507164026 15 45 8.0 20.9 0.00 0.00 0.00 80 1019.0
20260507163927 15 360 8.0 20.9 0.00 0.00 0.00 80 1019.0
20260507163831 15 360 8.0 20.9 0.00 0.00 0.00 80 1019.0
20260507163732 15 360 8.0 20.9 0.00 0.00 0.00 80 1019.0
20260507163634 15 360 9.7 20.9 0.00 0.00 0.00 80 1018.9
20260507163534 15 51 11.3 20.9 0.00 0.00 0.00 80 1019.0
20260507163454 15 360 9.7 20.9 0.00 0.00 0.00 81 1019.0
20260507163354 15 360 9.7 19.3 0.00 0.00 0.00 81 1018.9
20260507163234 15 360 8.0 19.3 0.00 0.00 0.00 81 1018.8
20260507163119 15 360 8.0 19.3 0.00 0.00 0.00 81 1018.7
20260507163019 15 360 6.4 20.9 0.00 0.00 0.00 81 1018.9
20260507162940 15 360 6.4 20.9 0.00 0.00 0.00 81 1019.1
20260507162820 15 360 6.4 20.9 0.00 0.00 0.00 82 1019.1
20260507162741 15 360 8.0 20.9 0.00 0.00 0.00 81 1019.1
20260507162620 15 360 9.7 20.9 0.00 0.00 0.00 81 1019.1
20260507162521 15 56 9.7 24.1 0.00 0.00 0.00 81 1019.2
20260507162421 15 360 11.3 24.1 0.00 0.00 0.00 82 1019.3
20260507162344 15 360 9.7 25.7 0.00 0.00 0.00 82 1019.3
20260507162224 15 360 9.7 25.7 0.00 0.00 0.00 81 1019.3
20260507162124 15 360 9.7 25.7 0.00 0.00 0.00 82 1019.4
20260507162025 15 360 11.3 25.7 0.00 0.00 0.00 82 1019.4
20260507161925 15 360 12.9 25.7 0.00 0.00 0.00 82 1019.4
20260507161826 15 360 14.5 25.7 0.00 0.00 0.00 82 1019.3
20260507161725 15 360 12.9 25.7 0.00 0.00 0.00 82 1019.2
20260507161630 15 360 12.9 25.7 0.00 0.00 0.00 82 1019.2
20260507161530 15 360 12.9 25.7 0.00 0.00 0.00 82 1019.1
20260507161430 15 360 14.5 25.7 0.00 0.00 0.00 82 1019.0
20260507161331 15 360 16.1 25.7 0.00 0.00 0.00 82 1018.8
20260507161232 15 360 16.1 25.7 0.00 0.00 0.00 82 1019.0
20260507161133 15 360 16.1 22.5 0.00 0.00 0.00 82 1019.1
20260507161017 15 360 14.5 22.5 0.00 0.00 0.00 82 1019.3
20260507160918 15 360 14.5 24.1 0.00 0.00 0.00 82 1019.4
20260507160818 15 360 12.9 24.1 0.00 0.00 0.00 82 1019.6
20260507160719 15 18 12.9 24.1 0.00 0.00 0.00 82 1019.8
20260507160620 15 360 12.9 24.1 0.00 0.00 0.00 82 1019.9
20260507160521 15 360 12.9 24.1 0.00 0.00 0.00 82 1020.1
20260507160427 15 360 12.9 24.1 0.00 0.00 0.00 82 1020.1
20260507160327 15 360 14.5 24.1 0.00 0.00 0.00 82 1020.1
20260507160226 15 360 14.5 24.1 0.00 0.00 0.00 82 1020.1
20260507160124 15 360 14.5 24.1 0.00 0.00 0.00 82 1020.1
20260507160045 15 360 12.9 22.5 0.00 0.00 0.00 82 1020.1
20260507155925 15 360 12.9 22.5 0.00 0.00 0.00 83 1020.1
20260507155827 15 360 12.9 20.9 0.00 0.00 0.00 83 1020.1
20260507155747 15 360 14.5 20.9 0.00 0.00 0.00 83 1019.7
20260507155625 15 360 12.9 20.9 0.00 0.00 0.00 83 1019.7
20260507155530 15 360 12.9 20.9 0.00 0.00 0.00 83 1019.7
20260507155430 15 360 12.9 20.9 0.00 0.00 0.00 83 1019.5
20260507155331 15 360 11.3 20.9 0.00 0.00 0.00 83 1019.5
20260507155232 15 360 9.7 17.7 0.00 0.00 0.00 83 1019.3
20260507155132 15 360 8.0 17.7 0.00 0.00 0.00 83 1019.3
20260507155032 15 360 8.0 17.7 0.00 0.00 0.00 83 1019.1
20260507154917 15 360 8.0 22.5 0.00 0.00 0.00 83 1019.1
20260507154818 15 360 8.0 22.5 0.00 0.00 0.00 83 1019.1
20260507154719 15 360 9.7 22.5 0.00 0.00 0.00 83 1019.1
20260507154619 15 360 11.3 22.5 0.00 0.00 0.00 83 1019.2
20260507154520 15 360 11.3 22.5 0.00 0.00 0.00 83 1019.3
20260507154420 15 50 12.9 22.5 0.00 0.00 0.00 83 1019.3
20260507154324 15 360 12.9 22.5 0.00 0.00 0.00 83 1019.3
20260507154225 15 360 12.9 22.5 0.00 0.00 0.00 83 1019.4
20260507154126 15 360 12.9 22.5 0.00 0.00 0.00 83 1019.4
20260507154027 15 360 14.5 22.5 0.00 0.00 0.00 84 1019.3
20260507153948 15 360 14.5 22.5 0.00 0.00 0.00 84 1019.4
20260507153826 15 360 14.5 22.5 0.00 0.00 0.00 84 1019.4
20260507153727 15 360 14.5 22.5 0.00 0.00 0.00 84 1019.4
20260507153631 15 360 14.5 22.5 0.00 0.00 0.00 84 1019.4
20260507153532 15 360 14.5 22.5 0.00 0.00 0.00 84 1019.4
20260507153428 15 360 14.5 22.5 0.00 0.00 0.00 84 1019.4
20260507153329 15 360 14.5 22.5 0.00 0.00 0.00 84 1019.5
20260507153231 15 360 14.5 22.5 0.00 0.00 0.00 84 1019.6
20260507153132 15 360 12.9 22.5 0.00 0.00 0.00 84 1019.5
20260507153031 15 360 12.9 22.5 0.00 0.00 0.00 84 1019.5
20260507152956 15 360 11.3 22.5 0.00 0.00 0.00 84 1019.6
20260507152817 15 360 9.7 19.3 0.00 0.00 0.00 84 1019.5
20260507152717 15 360 11.3 19.3 0.00 0.00 0.00 84 1019.6
20260507152618 15 360 11.3 17.7 0.00 0.00 0.00 84 1019.5
20260507152518 15 360 9.7 16.1 0.00 0.00 0.00 85 1019.5
20260507152418 15 360 8.0 16.1 0.00 0.00 0.00 85 1019.5
20260507152338 15 360 6.4 22.5 0.00 0.00 0.00 85 1019.3
20260507152242 15 360 8.0 22.5 0.00 0.00 0.00 85 1019.3
20260507152115 15 360 8.0 25.7 0.00 0.00 0.00 85 1019.3
20260507152016 15 360 6.4 25.7 0.00 0.00 0.00 85 1019.3
20260507151918 15 360 8.0 25.7 0.00 0.00 0.00 85 1019.4
20260507151818 15 360 8.0 25.7 0.00 0.00 0.00 85 1019.4
20260507151738 15 360 11.3 25.7 0.00 0.00 0.00 85 1019.4
20260507151618 15 360 12.9 25.7 0.00 0.00 0.00 85 1019.4
20260507151542 15 360 14.5 25.7 0.00 0.00 0.00 84 1019.4
20260507151416 15 360 16.1 25.7 0.00 0.00 0.00 84 1019.6
20260507151316 15 360 17.7 25.7 0.00 0.00 0.00 84 1019.5
20260507151217 15 360 16.1 25.7 0.00 0.00 0.00 84 1019.5
20260507151117 15 360 14.5 25.7 0.00 0.00 0.00 84 1019.4
20260507151018 15 360 16.1 25.7 0.00 0.00 0.00 84 1019.6
20260507150917 15 360 14.5 25.7 0.00 0.00 0.00 84 1019.4
20260507150822 15 360 16.1 29.0 0.00 0.00 0.00 84 1019.4
20260507150742 15 360 16.1 29.0 0.00 0.00 0.00 84 1019.4
20260507150616 15 360 14.5 29.0 0.00 0.00 0.00 84 1019.3
20260507150516 15 360 14.5 29.0 0.00 0.00 0.00 84 1019.3
20260507150437 15 360 14.5 29.0 0.00 0.00 0.00 84 1019.3
20260507150336 15 11 14.5 29.0 0.00 0.00 0.00 84 1019.3
20260507150258 15 360 16.1 29.0 0.00 0.00 0.00 84 1019.3
20260507150156 15 360 17.7 29.0 0.00 0.00 0.00 84 1019.4
20260507150020 15 360 17.7 27.4 0.00 0.00 0.00 84 1019.3
20260507145940 15 360 16.1 27.4 0.00 0.00 0.00 84 1019.4
20260507145841 15 360 14.5 27.4 0.00 0.00 0.00 84 1019.3
20260507145721 15 360 12.9 25.7 0.00 0.00 0.00 84 1019.3
20260507145620 15 360 11.3 25.7 0.00 0.00 0.00 84 1019.3
20260507145541 15 360 11.3 25.7 0.00 0.00 0.00 85 1019.4
20260507145421 15 360 12.9 25.7 0.00 0.00 0.00 85 1019.4
20260507145321 15 360 14.5 25.7 0.00 0.00 0.00 85 1019.4
20260507145227 15 360 14.5 25.7 0.00 0.00 0.00 85 1019.4
20260507145127 15 360 14.5 25.7 0.00 0.00 0.00 85 1019.4
20260507145027 15 360 14.5 25.7 0.00 0.00 0.00 85 1019.4
20260507144927 15 360 14.5 25.7 0.00 0.00 0.00 85 1019.3
20260507144827 15 360 14.5 25.7 0.00 0.00 0.00 85 1019.4
20260507144747 15 360 12.9 25.7 0.00 0.00 0.00 85 1019.4
20260507144625 15 360 11.3 22.5 0.00 0.00 0.00 85 1019.5
20260507144531 15 360 12.9 22.5 0.00 0.00 0.00 85 1019.5
20260507144431 15 360 14.5 22.5 0.00 0.00 0.00 85 1019.5
20260507144331 15 360 12.9 22.5 0.00 0.00 0.00 85 1019.5
20260507144232 15 360 11.3 20.9 0.00 0.00 0.00 85 1019.6
20260507144152 15 360 9.7 20.9 0.00 0.00 0.00 85 1019.5
20260507144032 15 360 11.3 20.9 0.00 0.00 0.00 85 1019.5
20260507143932 15 360 12.9 20.9 0.00 0.00 0.00 85 1019.6
20260507143816 15 360 12.9 20.9 0.00 0.00 0.00 85 1019.6
20260507143717 15 360 11.3 19.3 0.00 0.00 0.00 85 1019.7
20260507143617 15 360 9.7 19.3 0.00 0.00 0.00 85 1019.7
20260507143539 15 360 8.0 19.3 0.00 0.00 0.00 85 1019.7
20260507143416 15 360 8.0 19.3 0.00 0.00 0.00 85 1019.7
20260507143337 15 360 8.0 19.3 0.00 0.00 0.00 85 1019.8
20260507143217 15 360 9.7 19.3 0.00 0.00 0.00 85 1019.7
20260507143117 14 360 11.3 19.3 0.00 0.00 0.00 85 1019.7
20260507143038 15 360 12.9 19.3 0.00 0.00 0.00 85 1019.7
20260507142922 15 360 11.3 19.3 0.00 0.00 0.00 85 1019.7
20260507142823 15 360 9.7 17.7 0.00 0.00 0.00 85 1019.8
20260507142743 15 360 8.0 17.7 0.00 0.00 0.00 85 1019.9
20260507142621 15 360 6.4 16.1 0.00 0.00 0.00 85 1019.8
20260507142543 15 360 6.4 16.1 0.00 0.00 0.00 85 1019.8
20260507142416 15 360 8.0 16.1 0.00 0.00 0.00 85 1019.9
20260507142316 15 360 8.0 16.1 0.00 0.00 0.00 85 1019.8
20260507142221 15 360 8.0 16.1 0.00 0.00 0.00 85 1019.9
20260507142121 14 360 8.0 16.1 0.00 0.00 0.00 85 1019.8
20260507142021 14 360 9.7 22.5 0.00 0.00 0.00 85 1019.8
20260507141942 14 360 9.7 22.5 0.00 0.00 0.00 85 1019.8
20260507141821 14 360 9.7 22.5 0.00 0.00 0.00 85 1019.7
20260507141721 14 360 8.0 22.5 0.00 0.00 0.00 85 1019.7
20260507141622 14 360 6.4 22.5 0.00 0.00 0.00 85 1019.6
20260507141543 15 360 4.8 24.1 0.00 0.00 0.00 85 1019.6
20260507141427 14 360 4.8 24.1 0.00 0.00 0.00 85 1019.6
20260507141327 14 360 6.4 24.1 0.00 0.00 0.00 86 1019.5
20260507141248 14 360 9.7 25.7 0.00 0.00 0.00 85 1019.5
20260507141127 14 360 12.9 25.7 0.00 0.00 0.00 85 1019.3
20260507141028 14 360 14.5 25.7 0.00 0.00 0.00 86 1019.4
20260507140928 14 360 14.5 25.7 0.00 0.00 0.00 86 1019.2
20260507140849 14 360 12.9 25.7 0.00 0.00 0.00 85 1019.1
20260507140748 14 360 12.9 25.7 0.00 0.00 0.00 85 1019.2
20260507140632 14 360 14.5 25.7 0.00 0.00 0.00 85 1019.0
20260507140533 14 360 16.1 25.7 0.00 0.00 0.00 85 1019.1
20260507140434 14 360 14.5 27.4 0.00 0.00 0.00 85 1019.2
20260507140355 14 360 12.9 27.4 0.00 0.00 0.00 86 1019.2
20260507140235 14 360 12.9 27.4 0.00 0.00 0.00 86 1019.3
20260507140135 14 360 11.3 27.4 0.00 0.00 0.00 86 1019.2
20260507140019 14 360 11.3 27.4 0.00 0.00 0.00 86 1019.3
20260507135941 14 360 11.3 27.4 0.00 0.00 0.00 86 1019.3
20260507135843 14 360 12.9 27.4 0.00 0.00 0.00 86 1019.3
20260507135722 14 360 12.9 27.4 0.00 0.00 0.00 85 1019.3
20260507135622 14 360 12.9 27.4 0.00 0.00 0.00 86 1019.3
20260507135543 14 360 11.3 27.4 0.00 0.00 0.00 86 1019.3
20260507135416 14 360 9.7 22.5 0.00 0.00 0.00 86 1019.3
20260507135317 14 360 11.3 22.5 0.00 0.00 0.00 86 1019.3
20260507135220 14 360 9.7 22.5 0.00 0.00 0.00 86 1019.3
20260507135120 14 360 11.3 22.5 0.00 0.00 0.00 86 1019.3
20260507135021 14 360 12.9 22.5 0.00 0.00 0.00 86 1019.4
20260507134942 14 360 12.9 22.5 0.00 0.00 0.00 86 1019.4
20260507134903 14 360 9.7 20.9 0.00 0.00 0.00 86 1019.5
20260507134715 14 360 11.3 20.9 0.00 0.00 0.00 86 1019.3
20260507134616 14 360 9.7 20.9 0.00 0.00 0.00 86 1019.4
20260507134521 14 360 9.7 20.9 0.00 0.00 0.00 86 1019.2
20260507134421 14 360 11.3 20.9 0.00 0.00 0.00 86 1019.2
20260507134342 14 360 11.3 20.9 0.00 0.00 0.00 86 1019.1
20260507134221 14 360 11.3 20.9 0.00 0.00 0.00 86 1019.1
20260507134141 14 360 11.3 20.9 0.00 0.00 0.00 86 1019.0
20260507134021 14 360 11.3 20.9 0.00 0.00 0.00 86 1019.0
20260507133924 14 360 11.3 20.9 0.00 0.00 0.00 86 1018.9
20260507133844 14 360 9.7 20.9 0.00 0.00 0.00 86 1018.9
20260507133727 14 360 9.7 17.7 0.00 0.00 0.00 86 1018.9
20260507133648 14 360 9.7 25.7 0.00 0.00 0.00 86 1018.9
20260507133548 14 360 9.7 25.7 0.00 0.00 0.00 86 1018.8
20260507133426 14 309 9.7 25.7 0.00 0.00 0.00 86 1018.9
20260507133327 14 360 9.7 25.7 0.00 0.00 0.00 86 1018.9
20260507133227 14 360 9.7 25.7 0.00 0.00 0.00 86 1018.9
20260507133127 14 360 9.7 25.7 0.00 0.00 0.00 86 1018.9
20260507133028 14 360 9.7 25.7 0.00 0.00 0.00 86 1018.9
20260507132932 14 360 11.3 25.7 0.00 0.00 0.00 86 1018.9
20260507132853 14 360 12.9 27.4 0.00 0.00 0.00 86 1018.8
20260507132733 14 360 12.9 27.4 0.00 0.00 0.00 86 1018.7
20260507132652 14 360 12.9 27.4 0.00 0.00 0.00 86 1018.8
20260507132532 14 360 12.9 27.4 0.00 0.00 0.00 86 1018.6
20260507132433 14 360 11.3 27.4 0.00 0.00 0.00 86 1018.7
20260507132334 14 360 12.9 27.4 0.00 0.00 0.00 87 1018.6
20260507132219 14 360 12.9 27.4 0.00 0.00 0.00 87 1018.5
20260507132139 14 360 14.5 27.4 0.00 0.00 0.00 86 1018.5
20260507132018 14 360 14.5 27.4 0.00 0.00 0.00 86 1018.5
20260507131919 14 360 14.5 27.4 0.00 0.00 0.00 87 1018.5
20260507131819 14 360 14.5 27.4 0.00 0.00 0.00 87 1018.5
20260507131721 14 360 14.5 30.6 0.00 0.00 0.00 87 1018.5
20260507131620 14 360 12.9 30.6 0.00 0.00 0.00 86 1018.6
20260507131546 14 360 12.9 30.6 0.00 0.00 0.00 86 1018.7
20260507131426 14 360 12.9 30.6 0.00 0.00 0.00 86 1018.7
20260507131326 14 360 12.9 30.6 0.00 0.00 0.00 86 1018.6
20260507131227 14 360 14.5 30.6 0.00 0.00 0.00 86 1018.6
20260507131126 14 360 14.5 30.6 0.00 0.00 0.00 86 1018.7
20260507131027 14 360 14.5 30.6 0.00 0.00 0.00 86 1018.6
20260507130927 14 360 12.9 25.7 0.00 0.00 0.00 86 1018.6
20260507130831 14 360 12.9 25.7 0.00 0.00 0.00 86 1018.6
20260507130733 14 360 12.9 25.7 0.00 0.00 0.00 86 1018.6
20260507130633 14 360 12.9 25.7 0.00 0.00 0.00 86 1018.6
20260507130532 14 360 12.9 24.1 0.00 0.00 0.00 86 1018.7
20260507130433 14 360 12.9 24.1 0.00 0.00 0.00 86 1018.7
20260507130335 14 360 14.5 30.6 0.00 0.00 0.00 86 1018.6
20260507130219 14 360 14.5 30.6 0.00 0.00 0.00 86 1018.6
20260507130119 14 360 16.1 30.6 0.00 0.00 0.00 86 1018.6
20260507130020 14 360 16.1 30.6 0.00 0.00 0.00 86 1018.7
20260507125920 14 360 17.7 30.6 0.00 0.00 0.00 86 1018.8
20260507125822 14 360 19.3 30.6 0.00 0.00 0.00 86 1018.8
20260507125723 14 360 17.7 30.6 0.00 0.00 0.00 86 1018.9
20260507125624 14 360 17.7 30.6 0.00 0.00 0.00 86 1019.0
20260507125528 14 360 16.1 30.6 0.00 0.00 0.00 86 1019.0
20260507125428 14 360 16.1 30.6 0.00 0.00 0.00 86 1019.1
20260507125329 14 360 12.9 27.4 0.00 0.00 0.00 86 1019.0
20260507125250 14 360 14.5 25.7 0.00 0.00 0.00 86 1019.0
20260507125130 14 360 14.5 25.7 0.00 0.00 0.00 86 1019.1
20260507125031 14 360 14.5 25.7 0.00 0.00 0.00 86 1019.1
20260507124931 14 360 16.1 25.7 0.00 0.00 0.00 86 1019.1
20260507124816 14 360 16.1 24.1 0.00 0.00 0.00 86 1019.0
20260507124716 14 360 16.1 24.1 0.00 0.00 0.00 86 1019.1
20260507124617 14 360 16.1 24.1 0.00 0.00 0.00 86 1018.9
20260507124516 14 360 14.5 22.5 0.00 0.00 0.00 86 1018.8
20260507124437 14 360 14.5 22.5 0.00 0.00 0.00 86 1018.7
20260507124337 14 360 14.5 22.5 0.00 0.00 0.00 86 1018.7
20260507124216 14 360 14.5 22.5 0.00 0.00 0.00 86 1018.6
20260507124121 14 360 12.9 22.5 0.00 0.00 0.00 86 1018.6
20260507124021 14 360 11.3 22.5 0.00 0.00 0.00 86 1018.5
20260507123942 14 360 11.3 22.5 0.00 0.00 0.00 86 1018.5
20260507123821 14 360 11.3 24.1 0.00 0.00 0.00 86 1018.5
20260507123742 14 360 12.9 24.1 0.00 0.00 0.00 86 1018.5
20260507123616 14 360 14.5 24.1 0.00 0.00 0.00 86 1018.4
20260507123516 14 360 14.5 24.1 0.00 0.00 0.00 86 1018.5
20260507123421 14 360 14.5 24.1 0.00 0.00 0.00 86 1018.5
20260507123322 14 360 14.5 24.1 0.00 0.00 0.00 86 1018.4
20260507123221 14 360 14.5 24.1 0.00 0.00 0.00 86 1018.4
20260507123142 14 360 16.1 24.1 0.00 0.00 0.00 86 1018.4
20260507123016 14 360 16.1 24.1 0.00 0.00 0.00 86 1018.4
20260507122917 14 360 14.5 22.5 0.00 0.00 0.00 86 1018.4
20260507122823 14 360 14.5 22.5 0.00 0.00 0.00 86 1018.4
20260507122742 14 360 12.9 22.5 0.00 0.00 0.00 86 1018.4
20260507122622 14 360 12.9 22.5 0.00 0.00 0.00 86 1018.4
20260507122523 14 360 11.3 22.5 0.00 0.00 0.00 86 1018.4
20260507122422 14 360 11.3 22.5 0.00 0.00 0.00 86 1018.4
20260507122324 14 360 9.7 22.5 0.00 0.00 0.00 85 1018.5
20260507122224 14 26 11.3 22.5 0.00 0.00 0.00 86 1018.6
20260507122130 14 360 11.3 22.5 0.00 0.00 0.00 86 1018.6
20260507122031 14 360 12.9 25.7 0.00 0.00 0.00 86 1018.6
20260507121930 14 360 11.3 25.7 0.00 0.00 0.00 86 1018.6
20260507121830 14 360 12.9 25.7 0.00 0.00 0.00 86 1018.6
20260507121732 14 360 12.9 25.7 0.00 0.00 0.00 86 1018.5
20260507121632 14 360 12.9 25.7 0.00 0.00 0.00 86 1018.5
20260507121532 14 360 11.3 25.7 0.00 0.00 0.00 86 1018.5
20260507121416 14 360 12.9 25.7 0.00 0.00 0.00 86 1018.5
20260507121316 14 360 12.9 25.7 0.00 0.00 0.00 86 1018.4
20260507121216 14 360 12.9 25.7 0.00 0.00 0.00 86 1018.3
20260507121117 14 360 11.3 25.7 0.00 0.00 0.00 86 1018.3
20260507121018 14 360 11.3 25.7 0.00 0.00 0.00 86 1018.2
20260507120919 14 360 11.3 25.7 0.00 0.00 0.00 86 1018.2
20260507120838 14 360 11.3 25.7 0.00 0.00 0.00 86 1018.2
20260507120722 14 360 12.9 25.7 0.00 0.00 0.00 86 1018.1
20260507120622 14 360 12.9 25.7 0.00 0.00 0.00 86 1018.2
20260507120543 14 360 11.3 25.7 0.00 0.00 0.00 86 1018.1
20260507120423 14 360 11.3 25.7 0.00 0.00 0.00 86 1018.0
20260507120343 14 360 12.9 27.4 0.00 0.00 0.00 86 1018.0
20260507120243 14 360 12.9 27.4 0.00 0.00 0.00 86 1018.0
20260507120203 14 360 14.5 27.4 0.00 0.00 0.00 86 1018.0
20260507120103 14 360 16.1 27.4 0.00 0.00 0.00 86 1018.0
20260507115916 14 360 16.1 33.8 0.00 0.00 0.00 86 1018.0
20260507115842 14 360 16.1 33.8 0.00 0.00 0.00 86 1018.0
20260507115721 14 360 14.5 33.8 0.00 0.00 0.00 86 1018.0
20260507115622 14 360 14.5 33.8 0.00 0.00 0.00 86 1018.0
20260507115522 14 360 12.9 33.8 0.00 0.00 0.00 86 1017.9
20260507115443 14 360 12.9 33.8 0.00 0.00 0.00 86 1017.9
20260507115322 14 360 12.9 33.8 0.00 0.00 0.00 86 1017.9
20260507115222 14 360 14.5 33.8 0.00 0.00 0.00 86 1017.9
20260507115123 14 360 16.1 33.8 0.00 0.00 0.00 86 1017.9
20260507115028 14 360 16.1 33.8 0.00 0.00 0.00 85 1017.9
20260507114927 14 360 16.1 33.8 0.00 0.00 0.00 85 1017.9
20260507114828 14 360 16.1 33.8 0.00 0.00 0.00 85 1017.9
20260507114727 14 360 14.5 33.8 0.00 0.00 0.00 85 1017.8
20260507114627 14 360 12.9 22.5 0.00 0.00 0.00 85 1017.9
20260507114527 14 360 11.3 24.1 0.00 0.00 0.00 85 1017.9
20260507114427 14 360 9.7 24.1 0.00 0.00 0.00 85 1018.0
20260507114333 14 360 9.7 24.1 0.00 0.00 0.00 85 1018.0
20260507114255 14 360 9.7 24.1 0.00 0.00 0.00 85 1018.0
20260507114133 14 360 12.9 25.7 0.00 0.00 0.00 85 1018.1
20260507114034 14 360 14.5 25.7 0.00 0.00 0.00 85 1018.1
20260507113934 14 360 14.5 25.7 0.00 0.00 0.00 85 1018.1
20260507113855 14 360 12.9 25.7 0.00 0.00 0.00 85 1018.2
20260507113734 14 360 14.5 25.7 0.00 0.00 0.00 85 1018.1
20260507113618 14 360 14.5 27.4 0.00 0.00 0.00 85 1018.0
20260507113539 14 360 14.5 27.4 0.00 0.00 0.00 85 1018.0
20260507113419 14 360 16.1 29.0 0.00 0.00 0.00 85 1018.0
20260507113319 14 360 14.5 29.0 0.00 0.00 0.00 85 1018.0
20260507113219 14 360 14.5 29.0 0.00 0.00 0.00 85 1018.0
20260507113120 14 360 14.5 29.0 0.00 0.00 0.00 85 1018.0
20260507113023 14 360 14.5 29.0 0.00 0.00 0.00 85 1017.9
20260507112926 14 360 12.9 29.0 0.00 0.00 0.00 85 1017.9
20260507112826 15 360 12.9 29.0 0.00 0.00 0.00 85 1017.9
20260507112728 14 360 11.3 29.0 0.00 0.00 0.00 85 1017.8
20260507112627 15 360 11.3 29.0 0.00 0.00 0.00 85 1017.7
20260507112527 15 360 14.5 29.0 0.00 0.00 0.00 85 1017.7
20260507112428 15 360 14.5 29.0 0.00 0.00 0.00 85 1017.7
20260507112328 15 360 16.1 29.0 0.00 0.00 0.00 85 1017.7
20260507112252 15 360 16.1 29.0 0.00 0.00 0.00 85 1017.7
20260507112132 15 360 16.1 27.4 0.00 0.00 0.00 85 1017.7
20260507112033 15 360 16.1 25.7 0.00 0.00 0.00 85 1017.6
20260507111954 15 360 16.1 25.7 0.00 0.00 0.00 85 1017.7
20260507111835 15 360 14.5 24.1 0.00 0.00 0.00 85 1017.7
20260507111735 15 360 14.5 24.1 0.00 0.00 0.00 85 1017.7
20260507111634 15 360 14.5 24.1 0.00 0.00 0.00 85 1017.7
20260507111519 15 360 14.5 20.9 0.00 0.00 0.00 85 1017.6
20260507111420 15 360 12.9 20.9 0.00 0.00 0.00 85 1017.7
20260507111340 15 360 12.9 20.9 0.00 0.00 0.00 85 1017.6
20260507111240 15 360 12.9 19.3 0.00 0.00 0.00 85 1017.7
20260507111119 15 360 12.9 19.3 0.00 0.00 0.00 85 1017.6
20260507111020 15 360 12.9 27.4 0.00 0.00 0.00 85 1017.6
20260507110921 15 360 11.3 27.4 0.00 0.00 0.00 85 1017.6
20260507110826 15 360 11.3 27.4 0.00 0.00 0.00 85 1017.6
20260507110747 15 360 11.3 27.4 0.00 0.00 0.00 85 1017.6
20260507110625 15 360 12.9 27.4 0.00 0.00 0.00 85 1017.6
20260507110546 14 360 12.9 27.4 0.00 0.00 0.00 85 1017.6
20260507110426 15 360 12.9 27.4 0.00 0.00 0.00 85 1017.6
20260507110348 14 360 12.9 27.4 0.00 0.00 0.00 85 1017.6
20260507110227 14 360 12.9 27.4 0.00 0.00 0.00 85 1017.6
20260507110148 14 360 12.9 22.5 0.00 0.00 0.00 85 1017.6
20260507110027 14 360 11.3 22.5 0.00 0.00 0.00 85 1017.6
20260507105932 14 360 9.7 22.5 0.00 0.00 0.00 85 1017.6
20260507105853 14 360 9.7 22.5 0.00 0.00 0.00 85 1017.6
20260507105734 14 360 11.3 22.5 0.00 0.00 0.00 85 1017.6
20260507105653 15 360 11.3 32.2 0.00 0.00 0.00 85 1017.6
20260507105532 15 360 11.3 32.2 0.00 0.00 0.00 85 1017.6
20260507105434 14 360 12.9 32.2 0.00 0.00 0.00 85 1017.5
20260507105316 14 360 16.1 32.2 0.00 0.00 0.00 85 1017.5
20260507105219 14 360 16.1 32.2 0.00 0.00 0.00 85 1017.5
20260507105120 15 360 16.1 32.2 0.00 0.00 0.00 85 1017.5
20260507105040 15 360 16.1 32.2 0.00 0.00 0.00 85 1017.5
20260507104920 15 360 16.1 32.2 0.00 0.00 0.00 85 1017.5
20260507104819 15 23 14.5 32.2 0.00 0.00 0.00 85 1017.5
20260507104720 15 360 12.9 25.7 0.00 0.00 0.00 85 1017.6
20260507104641 15 360 12.9 25.7 0.00 0.00 0.00 85 1017.5
20260507104540 15 360 14.5 29.0 0.00 0.00 0.00 85 1017.6
20260507104424 15 360 14.5 29.0 0.00 0.00 0.00 85 1017.6
20260507104325 15 360 14.5 29.0 0.00 0.00 0.00 85 1017.6
20260507104225 15 360 16.1 29.0 0.00 0.00 0.00 85 1017.6
20260507104126 15 360 17.7 29.0 0.00 0.00 0.00 85 1017.6
20260507104026 15 360 17.7 29.0 0.00 0.00 0.00 85 1017.6
20260507103926 15 360 17.7 29.0 0.00 0.00 0.00 85 1017.6
20260507103831 15 360 17.7 29.0 0.00 0.00 0.00 85 1017.6
20260507103731 15 360 17.7 29.0 0.00 0.00 0.00 85 1017.6
20260507103631 15 360 16.1 29.0 0.00 0.00 0.00 85 1017.7
20260507103531 15 360 17.7 29.0 0.00 0.00 0.00 85 1017.7
20260507103432 15 360 17.7 29.0 0.00 0.00 0.00 85 1017.7
20260507103332 15 360 17.7 29.0 0.00 0.00 0.00 85 1017.7
20260507103216 15 360 16.1 24.1 0.00 0.00 0.00 84 1017.6
20260507103118 15 360 14.5 24.1 0.00 0.00 0.00 84 1017.6
20260507103018 15 360 12.9 24.1 0.00 0.00 0.00 84 1017.5
20260507102918 15 360 11.3 22.5 0.00 0.00 0.00 84 1017.7
20260507102819 15 360 11.3 22.5 0.00 0.00 0.00 84 1017.6
20260507102718 15 360 11.3 22.5 0.00 0.00 0.00 84 1017.6
20260507102619 15 360 11.3 22.5 0.00 0.00 0.00 84 1017.6
20260507102523 15 360 12.9 22.5 0.00 0.00 0.00 84 1017.4
20260507102424 15 360 12.9 22.5 0.00 0.00 0.00 84 1017.4
20260507102323 15 360 14.5 22.5 0.00 0.00 0.00 84 1017.3
20260507102245 15 360 12.9 22.5 0.00 0.00 0.00 84 1017.3
20260507102123 15 360 12.9 22.5 0.00 0.00 0.00 84 1017.2
20260507102024 15 360 11.3 20.9 0.00 0.00 0.00 84 1017.2
20260507101925 15 360 9.7 20.9 0.00 0.00 0.00 84 1017.1
20260507101828 15 360 8.0 16.1 0.00 0.00 0.00 85 1017.1
20260507101749 15 360 8.0 16.1 0.00 0.00 0.00 85 1017.1
20260507101629 15 360 8.0 16.1 0.00 0.00 0.00 84 1017.0
20260507101530 15 360 8.0 16.1 0.00 0.00 0.00 84 1016.9
20260507101430 15 360 8.0 17.7 0.00 0.00 0.00 84 1017.0
20260507101350 15 360 8.0 17.7 0.00 0.00 0.00 84 1017.0
20260507101231 15 360 8.0 17.7 0.00 0.00 0.00 84 1017.1
20260507101135 15 360 9.7 17.7 0.00 0.00 0.00 84 1017.0
20260507101036 15 360 9.7 17.7 0.00 0.00 0.00 84 1017.1
20260507100956 15 360 9.7 17.7 0.00 0.00 0.00 84 1017.2
20260507100855 15 360 9.7 17.7 0.00 0.00 0.00 84 1017.2
20260507100735 15 360 8.0 20.9 0.00 0.00 0.00 84 1017.3
20260507100636 15 360 8.0 20.9 0.00 0.00 0.00 84 1017.3
20260507100556 15 360 6.4 20.9 0.00 0.00 0.00 84 1017.3
20260507100435 15 360 6.4 20.9 0.00 0.00 0.00 84 1017.2
20260507100320 15 360 8.0 20.9 0.00 0.00 0.00 84 1017.0
20260507100220 15 360 8.0 20.9 0.00 0.00 0.00 84 1017.0
20260507100122 15 360 9.7 24.1 0.00 0.00 0.00 84 1017.0
20260507100042 15 360 11.3 24.1 0.00 0.00 0.00 84 1017.0
20260507095921 15 360 12.9 24.1 0.00 0.00 0.00 84 1017.0
20260507095824 15 360 11.3 24.1 0.00 0.00 0.00 84 1017.1
20260507095723 15 360 12.9 24.1 0.00 0.00 0.00 84 1017.1
20260507095627 15 360 12.9 24.1 0.00 0.00 0.00 84 1017.1
20260507095528 15 360 12.9 24.1 0.00 0.00 0.00 84 1017.1
20260507095430 15 360 12.9 24.1 0.00 0.00 0.00 84 1017.1
20260507095331 15 360 12.9 24.1 0.00 0.00 0.00 84 1017.0
20260507095231 15 360 12.9 24.1 0.00 0.00 0.00 84 1016.9
20260507095152 15 360 11.3 24.1 0.00 0.00 0.00 84 1016.9
20260507095031 15 360 12.9 24.1 0.00 0.00 0.00 84 1016.8
20260507094916 15 360 14.5 24.1 0.00 0.00 0.00 84 1016.7
20260507094817 15 360 14.5 24.1 0.00 0.00 0.00 84 1016.8
20260507094717 15 360 14.5 24.1 0.00 0.00 0.00 84 1017.0
20260507094617 15 360 12.9 24.1 0.00 0.00 0.00 84 1017.0
20260507094538 15 360 9.7 24.1 0.00 0.00 0.00 84 1017.1
20260507094419 15 360 9.7 24.1 0.00 0.00 0.00 84 1017.1
20260507094318 15 360 8.0 19.3 0.00 0.00 0.00 84 1017.2
20260507094223 15 360 8.0 19.3 0.00 0.00 0.00 84 1017.2
20260507094123 15 360 8.0 19.3 0.00 0.00 0.00 84 1017.2
20260507094024 15 360 8.0 19.3 0.00 0.00 0.00 84 1017.1
20260507093924 15 360 8.0 20.9 0.00 0.00 0.00 84 1017.0
20260507093825 15 360 8.0 22.5 0.00 0.00 0.00 84 1016.9
20260507093725 15 360 9.7 22.5 0.00 0.00 0.00 84 1016.9
20260507093629 15 360 9.7 22.5 0.00 0.00 0.00 84 1016.9
20260507093550 15 360 9.7 22.5 0.00 0.00 0.00 83 1016.9
20260507093450 15 360 12.9 22.5 0.00 0.00 0.00 83 1016.9
20260507093330 15 360 12.9 22.5 0.00 0.00 0.00 83 1016.9
20260507093231 15 360 11.3 22.5 0.00 0.00 0.00 83 1017.0
20260507093131 15 360 12.9 22.5 0.00 0.00 0.00 83 1017.0
20260507093032 15 360 12.9 22.5 0.00 0.00 0.00 83 1017.1
20260507092916 15 360 11.3 22.5 0.00 0.00 0.00 83 1017.0
20260507092818 15 360 12.9 20.9 0.00 0.00 0.00 83 1016.9
20260507092717 15 360 12.9 20.9 0.00 0.00 0.00 83 1016.9
20260507092618 15 360 12.9 19.3 0.00 0.00 0.00 83 1016.9
20260507092539 15 360 11.3 17.7 0.00 0.00 0.00 83 1016.9
20260507092419 15 360 11.3 17.7 0.00 0.00 0.00 83 1017.0
20260507092319 15 360 9.7 14.5 0.00 0.00 0.00 83 1017.0
20260507092225 15 360 9.7 14.5 0.00 0.00 0.00 83 1017.0
20260507092126 15 360 9.7 14.5 0.00 0.00 0.00 83 1017.0
20260507092026 15 360 8.0 14.5 0.00 0.00 0.00 83 1016.9
20260507091926 15 360 8.0 14.5 0.00 0.00 0.00 83 1016.9
20260507091827 15 360 8.0 14.5 0.00 0.00 0.00 83 1016.9
20260507091728 15 360 6.4 14.5 0.00 0.00 0.00 83 1017.0
20260507091629 15 360 6.4 14.5 0.00 0.00 0.00 83 1016.9
20260507091534 15 360 6.4 16.1 0.00 0.00 0.00 83 1017.1
20260507091434 15 360 6.4 16.1 0.00 0.00 0.00 83 1017.1
20260507091335 15 360 6.4 16.1 0.00 0.00 0.00 83 1017.1
20260507091255 15 360 8.0 16.1 0.00 0.00 0.00 83 1017.1
20260507091156 15 360 8.0 16.1 0.00 0.00 0.00 83 1017.1
20260507091035 15 360 8.0 16.1 0.00 0.00 0.00 83 1017.1
20260507090956 15 360 9.7 16.1 0.00 0.00 0.00 83 1017.1
20260507090819 15 360 8.0 14.5 0.00 0.00 0.00 83 1017.0
20260507090720 15 360 8.0 14.5 0.00 0.00 0.00 83 1017.0
20260507090620 15 360 6.4 14.5 0.00 0.00 0.00 83 1017.0
20260507090521 15 360 6.4 12.9 0.00 0.00 0.00 83 1016.9
20260507090422 15 360 6.4 12.9 0.00 0.00 0.00 83 1016.9
20260507090321 15 360 4.8 12.9 0.00 0.00 0.00 83 1016.9
20260507090222 15 360 4.8 12.9 0.00 0.00 0.00 83 1016.8
20260507090127 15 360 4.8 12.9 0.00 0.00 0.00 83 1016.8
20260507090027 15 360 4.8 12.9 0.00 0.00 0.00 83 1016.8
20260507085948 15 360 4.8 12.9 0.00 0.00 0.00 83 1016.7
20260507085827 15 360 4.8 12.9 0.00 0.00 0.00 83 1016.6
20260507085728 15 360 6.4 12.9 0.00 0.00 0.00 83 1016.6
20260507085627 15 360 6.4 12.9 0.00 0.00 0.00 83 1016.6
20260507085527 15 360 6.4 12.9 0.00 0.00 0.00 83 1016.7
20260507085431 15 360 6.4 12.9 0.00 0.00 0.00 83 1016.7
20260507085332 15 360 6.4 12.9 0.00 0.00 0.00 83 1016.7
20260507085251 15 360 6.4 12.9 0.00 0.00 0.00 83 1016.7
20260507085151 15 360 4.8 12.9 0.00 0.00 0.00 83 1016.7
20260507085050 15 360 4.8 12.9 0.00 0.00 0.00 83 1016.7
20260507084931 15 360 4.8 8.0 0.00 0.00 0.00 83 1016.7
20260507084832 15 360 4.8 8.0 0.00 0.00 0.00 83 1016.6
20260507084733 15 360 4.8 8.0 0.00 0.00 0.00 83 1016.7
20260507084618 15 360 3.2 6.4 0.00 0.00 0.00 83 1016.7
20260507084518 15 360 3.2 6.4 0.00 0.00 0.00 83 1016.8
20260507084438 15 360 3.2 6.4 0.00 0.00 0.00 83 1016.8
20260507084318 15 360 3.2 6.4 0.00 0.00 0.00 83 1016.8
20260507084219 15 360 3.2 8.0 0.00 0.00 0.00 83 1016.8
20260507084140 15 57 3.2 8.0 0.00 0.00 0.00 83 1016.7
20260507084019 15 360 3.2 14.5 0.00 0.00 0.00 83 1016.6
20260507083923 15 360 4.8 14.5 0.00 0.00 0.00 83 1016.5
20260507083824 15 360 4.8 14.5 0.00 0.00 0.00 83 1016.5
20260507083725 15 360 4.8 14.5 0.00 0.00 0.00 83 1016.5
20260507083646 15 360 4.8 14.5 0.00 0.00 0.00 83 1016.5
20260507083525 15 360 4.8 14.5 0.00 0.00 0.00 83 1016.6
20260507083446 15 360 4.8 14.5 0.00 0.00 0.00 83 1016.5
20260507083324 15 360 4.8 14.5 0.00 0.00 0.00 83 1016.6
20260507083244 15 360 6.4 14.5 0.00 0.00 0.00 83 1016.7
20260507083128 15 360 6.4 12.9 0.00 0.00 0.00 83 1016.7
20260507083029 15 360 6.4 12.9 0.00 0.00 0.00 83 1016.6
20260507082930 15 360 6.4 12.9 0.00 0.00 0.00 83 1016.7
20260507082830 15 360 4.8 12.9 0.00 0.00 0.00 83 1016.7
20260507082732 15 360 3.2 12.9 0.00 0.00 0.00 83 1016.7
20260507082631 15 360 3.2 8.0 0.00 0.00 0.00 83 1016.6
20260507082516 15 360 3.2 8.0 0.00 0.00 0.00 82 1016.7
20260507082416 15 360 3.2 8.0 0.00 0.00 0.00 82 1016.7
20260507082317 15 360 3.2 8.0 0.00 0.00 0.00 82 1016.7
20260507082217 15 360 3.2 20.9 0.00 0.00 0.00 82 1016.6
20260507082118 15 360 3.2 20.9 0.00 0.00 0.00 82 1016.6
20260507082017 15 360 4.8 20.9 0.00 0.00 0.00 82 1016.7
20260507081918 15 360 4.8 20.9 0.00 0.00 0.00 82 1016.6
20260507081823 15 360 4.8 20.9 0.00 0.00 0.00 82 1016.7
20260507081744 15 360 4.8 20.9 0.00 0.00 0.00 82 1016.7
20260507081643 15 65 6.4 20.9 0.00 0.00 0.00 82 1016.8
20260507081543 15 360 4.8 20.9 0.00 0.00 0.00 82 1016.8
20260507081422 15 360 6.4 20.9 0.00 0.00 0.00 82 1016.8
20260507081322 15 360 8.0 20.9 0.00 0.00 0.00 82 1016.6
20260507081244 15 360 9.7 20.9 0.00 0.00 0.00 82 1016.3
20260507081122 15 360 9.7 20.9 0.00 0.00 0.00 82 1016.1
20260507081043 15 360 11.3 20.9 0.00 0.00 0.00 82 1016.1
20260507080927 15 360 11.3 20.9 0.00 0.00 0.00 82 1016.1
20260507080827 15 360 11.3 20.9 0.00 0.00 0.00 82 1016.2
20260507080729 15 360 11.3 17.7 0.00 0.00 0.00 82 1016.1
20260507080629 15 360 11.3 17.7 0.00 0.00 0.00 82 1016.2
20260507080530 15 360 9.7 16.1 0.00 0.00 0.00 82 1016.3
20260507080432 15 360 8.0 16.1 0.00 0.00 0.00 82 1016.4
20260507080331 15 360 6.4 16.1 0.00 0.00 0.00 82 1016.3
20260507080235 15 360 6.4 16.1 0.00 0.00 0.00 82 1016.4
20260507080135 15 360 4.8 16.1 0.00 0.00 0.00 82 1016.3
20260507080035 15 360 4.8 16.1 0.00 0.00 0.00 82 1016.2
20260507075916 15 61 8.0 16.1 0.00 0.00 0.00 82 1016.1
20260507075817 15 360 8.0 16.1 0.00 0.00 0.00 82 1016.1
20260507075718 15 360 8.0 16.1 0.00 0.00 0.00 82 1016.1
20260507075622 15 360 8.0 16.1 0.00 0.00 0.00 82 1016.0
20260507075522 15 360 8.0 16.1 0.00 0.00 0.00 82 1016.0
20260507075442 15 360 8.0 14.5 0.00 0.00 0.00 82 1016.1
20260507075322 15 360 6.4 14.5 0.00 0.00 0.00 82 1016.1
20260507075223 15 360 8.0 14.5 0.00 0.00 0.00 82 1016.2
20260507075124 15 360 8.0 14.5 0.00 0.00 0.00 82 1016.3
20260507075024 15 360 8.0 20.9 0.00 0.00 0.00 82 1016.5
20260507074930 15 360 8.0 20.9 0.00 0.00 0.00 82 1016.5
20260507074830 15 360 8.0 20.9 0.00 0.00 0.00 82 1016.6
20260507074751 15 360 6.4 20.9 0.00 0.00 0.00 82 1016.7
20260507074631 15 360 6.4 20.9 0.00 0.00 0.00 82 1016.7
20260507074532 15 360 6.4 20.9 0.00 0.00 0.00 82 1016.6
20260507074431 15 360 8.0 20.9 0.00 0.00 0.00 81 1016.5
20260507074332 15 360 8.0 20.9 0.00 0.00 0.00 81 1016.3
20260507074217 15 360 8.0 20.9 0.00 0.00 0.00 81 1016.1
20260507074118 15 360 9.7 20.9 0.00 0.00 0.00 81 1016.1
20260507074018 15 360 9.7 20.9 0.00 0.00 0.00 81 1016.0
20260507073920 15 360 11.3 20.9 0.00 0.00 0.00 81 1016.1
20260507073840 15 360 11.3 20.9 0.00 0.00 0.00 81 1015.9
20260507073721 15 360 11.3 20.9 0.00 0.00 0.00 81 1016.0
20260507073622 15 360 9.7 16.1 0.00 0.00 0.00 81 1016.0
20260507073547 15 360 9.7 16.1 0.00 0.00 0.00 81 1016.0
20260507073426 15 360 8.0 16.1 0.00 0.00 0.00 81 1015.9
20260507073327 15 360 8.0 17.7 0.00 0.00 0.00 81 1015.9
20260507073247 15 360 8.0 17.7 0.00 0.00 0.00 81 1015.8
20260507073125 15 360 8.0 17.7 0.00 0.00 0.00 81 1015.9
20260507073027 15 360 8.0 17.7 0.00 0.00 0.00 81 1015.9
20260507072947 15 360 9.7 17.7 0.00 0.00 0.00 81 1016.0
20260507072827 15 360 9.7 17.7 0.00 0.00 0.00 81 1016.0
20260507072732 15 360 9.7 17.7 0.00 0.00 0.00 81 1016.1
20260507072632 15 360 9.7 17.7 0.00 0.00 0.00 81 1016.1
20260507072553 15 360 8.0 17.7 0.00 0.00 0.00 81 1016.1
20260507072433 15 360 8.0 17.7 0.00 0.00 0.00 81 1016.1
20260507072334 15 360 8.0 17.7 0.00 0.00 0.00 81 1016.3
20260507072216 15 360 8.0 17.7 0.00 0.00 0.00 81 1016.3
20260507072120 16 360 8.0 17.7 0.00 0.00 0.00 81 1016.4
20260507072022 15 360 9.7 17.7 0.00 0.00 0.00 81 1016.4
20260507071923 15 360 9.7 17.7 0.00 0.00 0.00 81 1016.5
20260507071843 15 360 8.0 17.7 0.00 0.00 0.00 81 1016.4
20260507071723 16 360 8.0 17.7 0.00 0.00 0.00 81 1016.3
20260507071623 16 67 8.0 17.7 0.00 0.00 0.00 81 1016.4
20260507071524 15 360 8.0 17.7 0.00 0.00 0.00 81 1016.3
20260507071429 15 360 8.0 17.7 0.00 0.00 0.00 81 1016.3
20260507071330 16 360 6.4 17.7 0.00 0.00 0.00 81 1016.4
20260507071231 16 360 8.0 20.9 0.00 0.00 0.00 81 1016.3
20260507071131 16 360 8.0 20.9 0.00 0.00 0.00 81 1016.2
20260507071032 16 360 9.7 20.9 0.00 0.00 0.00 81 1016.2
20260507070932 16 360 9.7 20.9 0.00 0.00 0.00 81 1016.2
20260507070817 16 360 9.7 20.9 0.00 0.00 0.00 81 1016.0
20260507070717 16 360 9.7 20.9 0.00 0.00 0.00 81 1016.0
20260507070638 16 360 9.7 20.9 0.00 0.00 0.00 81 1016.0
20260507070537 16 360 9.7 20.9 0.00 0.00 0.00 81 1016.0
20260507070435 16 360 9.7 20.9 0.00 0.00 0.00 81 1015.9
20260507070357 16 360 9.7 16.1 0.00 0.00 0.00 81 1015.9
20260507070235 16 360 8.0 16.1 0.00 0.00 0.00 81 1016.0
20260507070153 16 360 9.7 16.1 0.00 0.00 0.00 81 1016.0
20260507070033 16 360 8.0 14.5 0.00 0.00 0.00 81 1016.0
20260507065932 16 360 8.0 14.5 0.00 0.00 0.00 81 1016.2
20260507065856 16 360 6.4 14.5 0.00 0.00 0.00 81 1016.4
20260507065733 16 360 4.8 14.5 0.00 0.00 0.00 81 1016.5
20260507065650 16 60 4.8 9.7 0.00 0.00 0.00 81 1016.6
20260507065528 16 47 3.2 9.7 0.00 0.00 0.00 81 1016.6
20260507065427 16 360 3.2 6.4 0.00 0.00 0.00 81 1016.7
20260507065327 16 360 3.2 6.4 0.00 0.00 0.00 81 1016.5
20260507065245 16 360 3.2 6.4 0.00 0.00 0.00 81 1016.4
20260507065122 16 360 3.2 6.4 0.00 0.00 0.00 81 1016.4
20260507065022 16 360 3.2 9.7 0.00 0.00 0.00 81 1016.4
20260507064927 16 360 3.2 12.9 0.00 0.00 0.00 81 1016.4
20260507064827 16 360 4.8 12.9 0.00 0.00 0.00 81 1016.3
20260507064727 16 360 4.8 12.9 0.00 0.00 0.00 81 1016.4
20260507064648 16 360 3.2 12.9 0.00 0.00 0.00 81 1016.3
20260507064527 16 360 4.8 12.9 0.00 0.00 0.00 81 1016.3
20260507064427 16 360 4.8 12.9 0.00 0.00 0.00 81 1016.3
20260507064327 16 360 4.8 14.5 0.00 0.00 0.00 81 1016.4
20260507064232 16 76 4.8 14.5 0.00 0.00 0.00 81 1016.4
20260507064133 16 360 4.8 14.5 0.00 0.00 0.00 81 1016.4
20260507064033 16 360 6.4 14.5 0.00 0.00 0.00 81 1016.3
20260507063933 16 360 6.4 14.5 0.00 0.00 0.00 81 1016.4
20260507063833 16 360 6.4 20.9 0.00 0.00 0.00 81 1016.3
20260507063734 16 360 6.4 20.9 0.00 0.00 0.00 81 1016.3
20260507063618 16 66 6.4 20.9 0.00 0.00 0.00 81 1016.2
20260507063518 16 360 8.0 20.9 0.00 0.00 0.00 81 1016.2
20260507063419 16 360 8.0 20.9 0.00 0.00 0.00 81 1016.1
20260507063339 16 360 9.7 20.9 0.00 0.00 0.00 81 1016.2
20260507063219 16 360 9.7 20.9 0.00 0.00 0.00 81 1016.1
20260507063119 16 360 9.7 20.9 0.00 0.00 0.00 81 1016.2
20260507063019 16 360 8.0 19.3 0.00 0.00 0.00 81 1016.1
20260507062924 16 360 6.4 17.7 0.00 0.00 0.00 81 1016.1
20260507062845 16 360 8.0 17.7 0.00 0.00 0.00 81 1016.1
20260507062745 16 360 6.4 17.7 0.00 0.00 0.00 81 1016.0
20260507062624 16 360 6.4 17.7 0.00 0.00 0.00 81 1016.0
20260507062525 16 360 8.0 17.7 0.00 0.00 0.00 81 1015.9
20260507062425 16 360 8.0 17.7 0.00 0.00 0.00 81 1015.9
20260507062325 16 360 9.7 17.7 0.00 0.00 0.00 81 1016.0
20260507062226 16 360 9.7 17.7 0.00 0.00 0.00 81 1016.0
20260507062131 16 360 11.3 17.7 0.00 0.00 0.00 81 1016.0
20260507062052 16 360 11.3 17.7 0.00 0.00 0.00 81 1015.8
20260507061932 16 360 9.7 17.7 0.00 0.00 0.00 81 1015.7
20260507061833 16 360 9.7 17.7 0.00 0.00 0.00 81 1015.6
20260507061735 16 360 9.7 17.7 0.00 0.00 0.00 81 1015.5
20260507061655 16 360 8.0 16.1 0.00 0.00 0.00 81 1015.5
20260507061534 16 360 8.0 16.1 0.00 0.00 0.00 81 1015.6
20260507061418 16 360 8.0 14.5 0.00 0.00 0.00 81 1015.9
20260507061319 16 360 6.4 14.5 0.00 0.00 0.00 81 1015.9
20260507061219 16 360 6.4 14.5 0.00 0.00 0.00 81 1016.0
20260507061119 16 360 6.4 14.5 0.00 0.00 0.00 81 1016.1
20260507061019 16 360 4.8 12.9 0.00 0.00 0.00 81 1016.1
20260507060920 16 360 4.8 12.9 0.00 0.00 0.00 81 1016.2
20260507060825 16 360 4.8 12.9 0.00 0.00 0.00 81 1016.2
20260507060745 16 360 4.8 12.9 0.00 0.00 0.00 81 1016.4
20260507060624 16 360 4.8 12.9 0.00 0.00 0.00 81 1016.3
20260507060525 16 360 4.8 12.9 0.00 0.00 0.00 81 1016.3
20260507060425 16 360 6.4 12.9 0.00 0.00 0.00 81 1016.3
20260507060326 16 360 4.8 12.9 0.00 0.00 0.00 81 1016.3
20260507060227 16 13 4.8 14.5 0.00 0.00 0.00 81 1016.4
20260507060130 16 360 4.8 14.5 0.00 0.00 0.00 81 1016.3
20260507060051 16 360 4.8 14.5 0.00 0.00 0.00 81 1016.3
20260507055930 16 360 4.8 14.5 0.00 0.00 0.00 81 1016.3
20260507055830 16 360 6.4 14.5 0.00 0.00 0.00 81 1016.2
20260507055732 16 360 6.4 14.5 0.00 0.00 0.00 81 1016.1
20260507055649 16 360 6.4 14.5 0.00 0.00 0.00 81 1016.0
20260507055529 16 360 6.4 14.5 0.00 0.00 0.00 80 1016.0
20260507055429 16 360 8.0 14.5 0.00 0.00 0.00 80 1015.9
20260507055334 16 360 8.0 14.5 0.00 0.00 0.00 80 1015.9
20260507055234 16 360 8.0 14.5 0.00 0.00 0.00 80 1015.8
20260507055134 16 360 8.0 14.5 0.00 0.00 0.00 80 1015.8
20260507055034 16 360 6.4 14.5 0.00 0.00 0.00 80 1015.9
20260507054935 16 360 6.4 14.5 0.00 0.00 0.00 80 1015.9
20260507054856 16 360 6.4 14.5 0.00 0.00 0.00 80 1016.0
20260507054720 16 360 6.4 14.5 0.00 0.00 0.00 80 1016.0
20260507054620 16 360 6.4 14.5 0.00 0.00 0.00 80 1016.0
20260507054521 16 360 6.4 14.5 0.00 0.00 0.00 80 1016.0
20260507054421 16 360 6.4 14.5 0.00 0.00 0.00 80 1016.1
20260507054322 16 360 6.4 12.9 0.00 0.00 0.00 80 1016.2
20260507054222 16 360 6.4 12.9 0.00 0.00 0.00 80 1016.2
20260507054123 16 360 6.4 12.9 0.00 0.00 0.00 80 1016.3
20260507054028 16 360 6.4 12.9 0.00 0.00 0.00 80 1016.3
20260507053948 16 360 6.4 16.1 0.00 0.00 0.00 80 1016.4
20260507053828 16 360 6.4 16.1 0.00 0.00 0.00 80 1016.3
20260507053749 16 360 6.4 16.1 0.00 0.00 0.00 80 1016.2
20260507053628 16 360 6.4 16.1 0.00 0.00 0.00 80 1016.2
20260507053530 16 360 4.8 16.1 0.00 0.00 0.00 80 1016.2
20260507053431 16 360 6.4 16.1 0.00 0.00 0.00 80 1016.2
20260507053336 16 360 6.4 16.1 0.00 0.00 0.00 80 1016.2
20260507053255 16 360 6.4 16.1 0.00 0.00 0.00 80 1016.2
20260507053155 16 360 6.4 16.1 0.00 0.00 0.00 80 1016.3
20260507053035 16 360 6.4 16.1 0.00 0.00 0.00 80 1016.4
20260507052935 16 55 6.4 16.1 0.00 0.00 0.00 80 1016.4
20260507052856 16 360 6.4 16.1 0.00 0.00 0.00 80 1016.3
20260507052756 16 360 4.8 14.5 0.00 0.00 0.00 81 1016.3
20260507052634 16 360 6.4 14.5 0.00 0.00 0.00 80 1016.2
20260507052519 16 360 6.4 14.5 0.00 0.00 0.00 81 1016.2
20260507052419 16 360 6.4 14.5 0.00 0.00 0.00 81 1016.2
20260507052318 16 360 6.4 14.5 0.00 0.00 0.00 81 1016.2
20260507052219 16 360 6.4 19.3 0.00 0.00 0.00 80 1016.2
20260507052119 16 360 6.4 19.3 0.00 0.00 0.00 80 1016.1
20260507052019 16 360 8.0 19.3 0.00 0.00 0.00 80 1016.1
20260507051920 16 360 8.0 19.3 0.00 0.00 0.00 80 1016.1
20260507051824 16 360 8.0 19.3 0.00 0.00 0.00 80 1016.1
20260507051724 16 360 8.0 19.3 0.00 0.00 0.00 81 1016.0
20260507051625 16 360 8.0 19.3 0.00 0.00 0.00 81 1016.0
20260507051526 16 360 8.0 19.3 0.00 0.00 0.00 81 1016.0
20260507051428 16 360 8.0 17.7 0.00 0.00 0.00 81 1016.0
20260507051348 16 360 8.0 16.1 0.00 0.00 0.00 81 1016.0
20260507051226 16 360 8.0 16.1 0.00 0.00 0.00 81 1016.0
20260507051132 16 360 8.0 16.1 0.00 0.00 0.00 81 1016.0
20260507051033 16 360 8.0 16.1 0.00 0.00 0.00 81 1016.0
20260507050932 16 360 8.0 17.7 0.00 0.00 0.00 81 1016.0
20260507050833 16 360 8.0 17.7 0.00 0.00 0.00 81 1015.9
20260507050754 16 360 6.4 17.7 0.00 0.00 0.00 81 1015.8
20260507050632 16 360 8.0 17.7 0.00 0.00 0.00 81 1015.8
20260507050533 16 360 8.0 17.7 0.00 0.00 0.00 81 1016.0
20260507050418 16 360 8.0 17.7 0.00 0.00 0.00 81 1016.0
20260507050318 16 360 9.7 17.7 0.00 0.00 0.00 81 1015.9
20260507050218 16 38 9.7 17.7 0.00 0.00 0.00 81 1016.0
20260507050120 16 360 8.0 17.7 0.00 0.00 0.00 81 1015.9
20260507050042 16 360 8.0 16.1 0.00 0.00 0.00 81 1015.9
20260507045917 16 360 8.0 16.1 0.00 0.00 0.00 81 1015.8
20260507045823 16 360 6.4 16.1 0.00 0.00 0.00 81 1015.6
20260507045723 16 360 6.4 16.1 0.00 0.00 0.00 81 1015.8
20260507045623 16 360 8.0 16.1 0.00 0.00 0.00 81 1015.8
20260507045544 16 360 8.0 16.1 0.00 0.00 0.00 81 1015.8
20260507045423 16 360 8.0 16.1 0.00 0.00 0.00 81 1015.8
20260507045324 16 360 8.0 19.3 0.00 0.00 0.00 81 1015.9
20260507045225 16 360 9.7 19.3 0.00 0.00 0.00 81 1015.9
20260507045129 16 360 9.7 19.3 0.00 0.00 0.00 81 1015.9
20260507045049 16 360 9.7 19.3 0.00 0.00 0.00 81 1016.1
20260507044928 16 360 9.7 19.3 0.00 0.00 0.00 81 1016.1
20260507044828 16 360 9.7 19.3 0.00 0.00 0.00 81 1016.1
20260507044730 16 360 8.0 19.3 0.00 0.00 0.00 81 1016.1
20260507044630 16 360 8.0 19.3 0.00 0.00 0.00 81 1016.0
20260507044531 16 360 8.0 19.3 0.00 0.00 0.00 81 1016.1
20260507044436 16 360 9.7 19.3 0.00 0.00 0.00 81 1016.0
20260507044316 16 360 11.3 19.3 0.00 0.00 0.00 81 1016.0
20260507044217 16 360 11.3 19.3 0.00 0.00 0.00 81 1016.0
20260507044117 16 360 11.3 19.3 0.00 0.00 0.00 82 1016.0
20260507044018 16 360 9.7 19.3 0.00 0.00 0.00 82 1016.1
20260507043937 16 360 9.7 17.7 0.00 0.00 0.00 82 1016.0
20260507043818 16 360 9.7 17.7 0.00 0.00 0.00 82 1016.0
20260507043722 16 360 9.7 17.7 0.00 0.00 0.00 82 1015.9
20260507043623 16 360 9.7 17.7 0.00 0.00 0.00 82 1016.0
20260507043523 16 360 9.7 17.7 0.00 0.00 0.00 82 1016.0
20260507043423 16 360 9.7 17.7 0.00 0.00 0.00 82 1016.1
20260507043324 16 360 9.7 17.7 0.00 0.00 0.00 82 1016.0
20260507043223 16 360 9.7 17.7 0.00 0.00 0.00 82 1016.0
20260507043124 16 360 9.7 17.7 0.00 0.00 0.00 82 1015.9
20260507043049 16 360 9.7 17.7 0.00 0.00 0.00 82 1015.9
20260507042927 16 360 8.0 17.7 0.00 0.00 0.00 82 1016.0
20260507042828 16 360 8.0 17.7 0.00 0.00 0.00 82 1016.0
20260507042729 16 360 8.0 17.7 0.00 0.00 0.00 81 1016.1
20260507042629 16 360 8.0 17.7 0.00 0.00 0.00 81 1016.2
20260507042529 16 360 8.0 17.7 0.00 0.00 0.00 81 1016.2
20260507042430 16 360 9.7 17.7 0.00 0.00 0.00 81 1016.2
20260507042334 16 360 9.7 17.7 0.00 0.00 0.00 81 1016.2
20260507042235 16 360 8.0 17.7 0.00 0.00 0.00 82 1016.1
20260507042135 16 360 9.7 17.7 0.00 0.00 0.00 82 1016.1
20260507042035 16 360 8.0 17.7 0.00 0.00 0.00 82 1016.1
20260507041916 16 360 8.0 17.7 0.00 0.00 0.00 81 1016.2
20260507041816 16 360 8.0 20.9 0.00 0.00 0.00 81 1016.2
20260507041721 16 360 8.0 20.9 0.00 0.00 0.00 81 1016.2
20260507041621 16 360 8.0 20.9 0.00 0.00 0.00 81 1016.2
20260507041541 16 360 8.0 20.9 0.00 0.00 0.00 81 1016.1
20260507041421 16 360 6.4 20.9 0.00 0.00 0.00 82 1016.1
20260507041322 16 360 6.4 20.9 0.00 0.00 0.00 82 1016.0
20260507041222 16 360 6.4 20.9 0.00 0.00 0.00 82 1015.9
20260507041143 16 360 6.4 20.9 0.00 0.00 0.00 82 1015.9
20260507041027 16 18 6.4 20.9 0.00 0.00 0.00 82 1015.8
20260507040927 16 360 8.0 20.9 0.00 0.00 0.00 81 1015.8
20260507040827 16 360 11.3 20.9 0.00 0.00 0.00 82 1015.8
20260507040728 16 360 11.3 20.9 0.00 0.00 0.00 82 1015.7
20260507040627 16 360 11.3 20.9 0.00 0.00 0.00 82 1015.6
20260507040528 16 360 11.3 20.9 0.00 0.00 0.00 82 1015.6
20260507040429 16 360 9.7 20.9 0.00 0.00 0.00 82 1015.6
20260507040332 16 360 9.7 17.7 0.00 0.00 0.00 82 1015.7
20260507040233 16 360 9.7 17.7 0.00 0.00 0.00 82 1015.7
20260507040133 16 360 9.7 17.7 0.00 0.00 0.00 82 1015.7
20260507040034 16 360 9.7 19.3 0.00 0.00 0.00 82 1015.7
20260507035934 16 360 8.0 19.3 0.00 0.00 0.00 82 1015.8
20260507035836 16 360 8.0 19.3 0.00 0.00 0.00 82 1015.8
20260507035719 16 360 6.4 19.3 0.00 0.00 0.00 82 1015.9
20260507035619 16 360 6.4 19.3 0.00 0.00 0.00 82 1015.9
20260507035519 16 360 6.4 19.3 0.00 0.00 0.00 81 1016.0
20260507035438 16 360 6.4 19.3 0.00 0.00 0.00 81 1015.8
20260507035338 16 360 8.0 19.3 0.00 0.00 0.00 81 1015.9
20260507035218 16 360 9.7 19.3 0.00 0.00 0.00 81 1015.9
20260507035119 16 360 9.7 19.3 0.00 0.00 0.00 81 1015.8
20260507035019 16 360 11.3 19.3 0.00 0.00 0.00 81 1015.9
20260507034920 16 360 11.3 19.3 0.00 0.00 0.00 81 1015.9
20260507034824 16 360 11.3 19.3 0.00 0.00 0.00 81 1016.0
20260507034724 16 360 9.7 19.3 0.00 0.00 0.00 81 1016.1
20260507034625 16 360 9.7 17.7 0.00 0.00 0.00 81 1016.1
20260507034545 16 360 8.0 17.7 0.00 0.00 0.00 81 1016.0
20260507034424 16 17 9.7 17.7 0.00 0.00 0.00 81 1016.1
20260507034324 16 360 9.7 17.7 0.00 0.00 0.00 81 1016.1
20260507034225 16 360 9.7 17.7 0.00 0.00 0.00 81 1016.2
20260507034128 16 360 9.7 17.7 0.00 0.00 0.00 82 1016.2
20260507034029 16 360 9.7 17.7 0.00 0.00 0.00 82 1016.1
20260507033950 16 360 9.7 17.7 0.00 0.00 0.00 81 1016.0
20260507033849 16 360 9.7 17.7 0.00 0.00 0.00 82 1015.8
20260507033728 16 360 9.7 16.1 0.00 0.00 0.00 81 1015.8
20260507033649 16 360 9.7 16.1 0.00 0.00 0.00 81 1015.8
20260507033529 16 360 9.7 16.1 0.00 0.00 0.00 81 1015.8
20260507033429 16 360 9.7 16.1 0.00 0.00 0.00 81 1015.9
20260507033333 16 360 8.0 14.5 0.00 0.00 0.00 81 1015.9
20260507033234 16 360 8.0 14.5 0.00 0.00 0.00 81 1015.8
20260507033135 16 360 8.0 19.3 0.00 0.00 0.00 81 1015.8
20260507033035 16 360 8.0 19.3 0.00 0.00 0.00 81 1015.8
20260507032917 16 360 8.0 19.3 0.00 0.00 0.00 81 1015.9
20260507032819 16 360 8.0 19.3 0.00 0.00 0.00 81 1015.9
20260507032744 16 360 8.0 19.3 0.00 0.00 0.00 81 1015.9
20260507032622 16 360 8.0 20.9 0.00 0.00 0.00 81 1016.0
20260507032523 16 360 8.0 20.9 0.00 0.00 0.00 81 1015.9
20260507032443 16 360 9.7 20.9 0.00 0.00 0.00 81 1015.9
20260507032323 16 360 9.7 20.9 0.00 0.00 0.00 81 1015.9
20260507032224 16 360 11.3 20.9 0.00 0.00 0.00 81 1015.8
20260507032144 16 360 11.3 20.9 0.00 0.00 0.00 81 1015.7
20260507032022 16 360 11.3 20.9 0.00 0.00 0.00 81 1015.6
20260507031928 16 360 11.3 20.9 0.00 0.00 0.00 82 1015.6
20260507031829 16 360 11.3 20.9 0.00 0.00 0.00 82 1015.6
20260507031728 16 360 11.3 20.9 0.00 0.00 0.00 82 1015.5
20260507031649 16 360 11.3 20.9 0.00 0.00 0.00 82 1015.5
20260507031527 16 360 9.7 19.3 0.00 0.00 0.00 82 1015.5
20260507031429 16 360 8.0 17.7 0.00 0.00 0.00 82 1015.5
20260507031329 16 360 8.0 17.7 0.00 0.00 0.00 82 1015.5
20260507031235 16 360 9.7 17.7 0.00 0.00 0.00 82 1015.5
20260507031116 16 360 9.7 17.7 0.00 0.00 0.00 82 1015.5
20260507031036 16 360 9.7 17.7 0.00 0.00 0.00 82 1015.5
20260507030956 16 360 9.7 17.7 0.00 0.00 0.00 82 1015.6
20260507030816 16 360 8.0 17.7 0.00 0.00 0.00 81 1015.6
20260507030736 16 360 9.7 17.7 0.00 0.00 0.00 82 1015.6
20260507030616 16 360 8.0 17.7 0.00 0.00 0.00 82 1015.8
20260507030521 16 360 9.7 17.7 0.00 0.00 0.00 82 1015.8
20260507030422 16 360 9.7 17.7 0.00 0.00 0.00 82 1015.8
20260507030342 16 360 9.7 17.7 0.00 0.00 0.00 82 1015.8
20260507030218 16 360 9.7 16.1 0.00 0.00 0.00 82 1015.9
20260507030119 16 360 9.7 16.1 0.00 0.00 0.00 82 1015.9
20260507030019 16 360 9.7 16.1 0.00 0.00 0.00 82 1016.0
20260507025919 16 360 9.7 16.1 0.00 0.00 0.00 82 1015.8
20260507025844 16 360 9.7 16.1 0.00 0.00 0.00 82 1015.9
20260507025723 16 360 9.7 16.1 0.00 0.00 0.00 82 1015.9
20260507025623 16 360 8.0 16.1 0.00 0.00 0.00 82 1015.8
20260507025543 16 360 8.0 16.1 0.00 0.00 0.00 82 1015.7
20260507025423 16 360 8.0 17.7 0.00 0.00 0.00 82 1015.6
20260507025324 16 360 6.4 17.7 0.00 0.00 0.00 82 1015.6
20260507025223 16 360 6.4 17.7 0.00 0.00 0.00 82 1015.5
20260507025145 16 360 6.4 20.9 0.00 0.00 0.00 82 1015.6
20260507025028 16 360 8.0 20.9 0.00 0.00 0.00 82 1015.6
20260507024929 16 360 9.7 20.9 0.00 0.00 0.00 82 1015.6
20260507024829 16 360 9.7 20.9 0.00 0.00 0.00 82 1015.6
20260507024730 16 360 11.3 20.9 0.00 0.00 0.00 82 1015.4
20260507024630 16 360 11.3 20.9 0.00 0.00 0.00 81 1015.4
20260507024530 16 360 9.7 20.9 0.00 0.00 0.00 81 1015.3
20260507024431 16 360 9.7 20.9 0.00 0.00 0.00 81 1015.3
20260507024316 16 360 9.7 19.3 0.00 0.00 0.00 81 1015.2
20260507024237 16 360 9.7 17.7 0.00 0.00 0.00 81 1015.2
20260507024135 16 360 9.7 17.7 0.00 0.00 0.00 82 1015.2
20260507024016 16 360 8.0 17.7 0.00 0.00 0.00 81 1015.1
20260507023937 16 360 8.0 17.7 0.00 0.00 0.00 81 1015.2
20260507023816 16 360 8.0 17.7 0.00 0.00 0.00 81 1015.3
20260507023717 16 360 8.0 17.7 0.00 0.00 0.00 81 1015.3
20260507023621 16 360 8.0 19.3 0.00 0.00 0.00 81 1015.3
20260507023522 16 360 8.0 19.3 0.00 0.00 0.00 81 1015.5
20260507023442 17 360 9.7 19.3 0.00 0.00 0.00 81 1015.4
20260507023342 17 360 9.7 19.3 0.00 0.00 0.00 81 1015.4
20260507023221 17 360 9.7 19.3 0.00 0.00 0.00 81 1015.3
20260507023122 17 360 9.7 19.3 0.00 0.00 0.00 81 1015.3
20260507023023 16 360 9.7 19.3 0.00 0.00 0.00 81 1015.2
20260507022943 17 360 9.7 19.3 0.00 0.00 0.00 81 1015.1
20260507022827 17 360 9.7 19.3 0.00 0.00 0.00 81 1015.1
20260507022729 17 360 9.7 22.5 0.00 0.00 0.00 81 1015.1
20260507022627 17 360 11.3 22.5 0.00 0.00 0.00 81 1015.1
20260507022548 17 360 11.3 22.5 0.00 0.00 0.00 81 1015.1
20260507022427 17 360 11.3 22.5 0.00 0.00 0.00 81 1015.1
20260507022328 17 360 12.9 22.5 0.00 0.00 0.00 81 1015.0
20260507022228 17 360 12.9 22.5 0.00 0.00 0.00 81 1015.0
20260507022153 17 360 12.9 22.5 0.00 0.00 0.00 81 1015.0
20260507022033 17 360 12.9 22.5 0.00 0.00 0.00 81 1015.1
20260507021933 17 360 11.3 20.9 0.00 0.00 0.00 81 1015.1
20260507021854 17 360 11.3 19.3 0.00 0.00 0.00 81 1015.1
20260507021732 17 360 11.3 19.3 0.00 0.00 0.00 81 1015.1
20260507021653 17 360 11.3 17.7 0.00 0.00 0.00 81 1015.0
20260507021533 17 360 11.3 17.7 0.00 0.00 0.00 81 1015.0
20260507021417 17 360 11.3 17.7 0.00 0.00 0.00 81 1014.9
20260507021317 17 360 9.7 17.7 0.00 0.00 0.00 81 1014.9
20260507021239 17 360 9.7 17.7 0.00 0.00 0.00 81 1014.7
20260507021138 17 360 9.7 17.7 0.00 0.00 0.00 81 1014.8
20260507021017 17 360 9.7 17.7 0.00 0.00 0.00 81 1014.8
20260507020918 17 360 9.7 17.7 0.00 0.00 0.00 81 1014.8
20260507020818 17 360 11.3 17.7 0.00 0.00 0.00 81 1014.8
20260507020740 17 360 11.3 17.7 0.00 0.00 0.00 81 1014.9
20260507020638 17 360 9.7 17.7 0.00 0.00 0.00 81 1014.8
20260507020522 17 360 8.0 17.7 0.00 0.00 0.00 81 1014.8
20260507020442 17 360 8.0 17.7 0.00 0.00 0.00 81 1014.8
20260507020322 17 360 8.0 17.7 0.00 0.00 0.00 81 1014.8
20260507020222 17 360 8.0 17.7 0.00 0.00 0.00 81 1014.9
20260507020142 17 360 9.7 17.7 0.00 0.00 0.00 81 1014.8
20260507020022 17 360 9.7 17.7 0.00 0.00 0.00 81 1014.7
20260507015922 17 360 11.3 17.7 0.00 0.00 0.00 81 1014.7
20260507015827 17 360 11.3 17.7 0.00 0.00 0.00 80 1014.7
20260507015729 17 360 9.7 17.7 0.00 0.00 0.00 80 1014.7
20260507015649 17 360 9.7 17.7 0.00 0.00 0.00 80 1014.7
20260507015548 17 360 8.0 17.7 0.00 0.00 0.00 80 1014.7
20260507015427 17 360 6.4 17.7 0.00 0.00 0.00 80 1014.8
20260507015326 17 360 6.4 14.5 0.00 0.00 0.00 80 1014.8
20260507015228 17 360 6.4 16.1 0.00 0.00 0.00 80 1014.7
20260507015127 17 360 4.8 16.1 0.00 0.00 0.00 80 1014.6
20260507015032 17 360 4.8 16.1 0.00 0.00 0.00 80 1014.6
20260507014933 17 360 6.4 16.1 0.00 0.00 0.00 80 1014.6
20260507014832 17 360 6.4 16.1 0.00 0.00 0.00 80 1014.6
20260507014753 17 360 6.4 16.1 0.00 0.00 0.00 80 1014.6
20260507014653 17 360 8.0 16.1 0.00 0.00 0.00 80 1014.7
20260507014531 17 360 8.0 16.1 0.00 0.00 0.00 80 1014.6
20260507014453 17 360 8.0 16.1 0.00 0.00 0.00 80 1014.6
20260507014331 17 360 8.0 16.1 0.00 0.00 0.00 80 1014.6
20260507014252 17 360 8.0 16.1 0.00 0.00 0.00 80 1014.6
20260507014136 17 360 8.0 16.1 0.00 0.00 0.00 80 1014.6
20260507014056 17 360 8.0 16.1 0.00 0.00 0.00 80 1014.5
20260507013915 17 360 9.7 16.1 0.00 0.00 0.00 80 1014.5
20260507013835 17 360 9.7 16.1 0.00 0.00 0.00 80 1014.5
20260507013716 17 360 9.7 16.1 0.00 0.00 0.00 80 1014.4
20260507013616 17 360 11.3 16.1 0.00 0.00 0.00 80 1014.3
20260507013516 17 360 9.7 17.7 0.00 0.00 0.00 80 1014.2
20260507013421 17 360 9.7 19.3 0.00 0.00 0.00 80 1014.2
20260507013322 17 360 8.0 19.3 0.00 0.00 0.00 80 1014.2
20260507013223 17 360 8.0 19.3 0.00 0.00 0.00 80 1014.1
20260507013123 17 360 8.0 19.3 0.00 0.00 0.00 80 1014.2
20260507013024 17 360 8.0 19.3 0.00 0.00 0.00 80 1014.2
20260507012924 17 360 9.7 19.3 0.00 0.00 0.00 80 1014.2
20260507012844 17 360 9.7 19.3 0.00 0.00 0.00 80 1014.3